ECMWFFLT1_850_spd_000.txt.gz
Wind_Speed
26 26 25 23 22 23 24 24 24 24 27 28 27 24 20 17 14 10 7 7 6 7 7 8 9 7 7 7 8 9 9 9 10 9 6 6 7 7 9 10 12 12 12 12 12 12 12 12 11 11 12 13 14 16 17 17 17 16 16 17 17 17 17
27 27 25 24 23 24 24 24 24 25 28 29 27 24 20 18 15 10 8 8 7 8 8 8 8 8 8 9 8 8 9 9 8 7 6 6 6 7 9 11 11 11 10 11 12 12 11 11 10 10 11 12 13 15 16 17 17 16 14 14 15 15 14
26 27 26 25 24 25 25 25 26 27 28 27 25 23 21 18 14 10 9 8 8 9 9 8 8 9 10 10 8 7 10 10 8 6 5 5 6 7 9 10 10 10 10 10 10 10 11 10 10 10 11 12 13 14 15 17 17 15 14 14 14 14 14
23 25 26 25 25 26 25 26 28 28 27 26 24 23 22 18 13 11 10 10 10 10 9 8 8 9 10 10 9 8 10 11 9 6 5 5 6 7 9 9 10 10 9 9 10 10 10 10 10 10 11 12 13 14 16 17 17 16 15 14 15 14 16
21 24 25 24 25 26 26 28 31 29 26 25 24 23 21 17 13 12 12 11 11 10 9 8 8 11 11 11 10 10 11 11 9 7 6 6 6 7 8 9 10 10 10 9 10 10 10 10 10 11 11 13 14 15 16 17 16 16 15 15 16 16 16
21 24 25 25 26 26 27 30 31 28 26 24 24 23 21 17 15 13 12 12 13 12 11 10 10 12 11 10 11 12 12 10 8 7 6 6 6 6 8 9 10 11 11 11 10 11 11 12 11 12 12 13 14 15 15 16 16 16 15 15 16 16 17
21 24 26 26 27 27 28 29 28 26 25 24 23 23 20 17 15 14 12 12 13 12 11 9 10 10 10 10 12 12 11 9 7 7 6 6 7 7 8 9 11 12 12 12 12 12 12 12 12 12 13 14 14 14 16 17 16 16 16 15 16 17 19
21 24 26 28 27 27 28 28 27 26 25 24 24 23 20 17 15 14 13 12 11 10 9 8 9 10 11 11 12 12 10 8 7 7 7 7 7 8 9 9 11 13 14 13 14 14 13 13 13 13 14 15 15 16 17 19 18 16 16 16 17 18 18
21 23 26 29 28 27 27 28 27 26 25 26 25 23 20 18 15 14 13 12 11 10 9 9 9 10 11 12 12 11 10 8 8 8 8 8 8 8 8 9 10 13 15 15 15 15 15 14 14 15 15 16 17 17 18 19 18 17 16 17 19 19 19
20 22 24 27 27 26 26 28 28 28 29 29 27 24 21 18 16 15 14 13 12 11 10 10 10 10 11 12 12 10 9 8 8 8 8 8 8 8 8 9 10 11 14 16 16 16 16 15 15 16 16 17 17 18 18 17 18 18 17 17 19 20 22
20 21 22 25 26 26 27 29 32 35 34 31 28 25 23 20 17 17 16 14 12 11 10 11 11 10 10 11 10 10 9 9 8 8 9 8 8 8 9 10 11 12 13 15 17 17 17 17 17 17 17 17 17 18 18 17 18 20 19 19 20 22 23
19 21 23 26 28 28 29 32 37 39 35 31 28 26 24 20 18 17 17 15 14 12 11 12 11 11 11 10 10 10 10 9 9 9 9 9 9 9 10 11 12 12 13 14 16 17 17 18 19 19 17 17 18 18 18 19 20 21 21 21 22 22 23
16 18 20 23 26 27 28 32 37 38 34 31 28 26 23 21 19 18 17 17 15 14 13 14 13 13 12 11 10 11 10 9 9 9 9 9 10 10 11 13 13 13 14 15 16 17 17 17 19 20 18 17 17 18 19 20 21 22 22 22 21 21 22
16 17 18 21 24 27 29 32 35 36 34 30 28 27 24 21 19 18 18 18 16 15 15 14 14 13 12 11 11 11 11 10 10 10 9 10 10 11 13 14 15 16 16 16 17 18 18 18 18 19 19 18 17 18 19 19 18 20 21 21 21 20 22
16 17 19 21 24 27 29 32 34 35 33 31 29 27 24 21 20 19 19 18 17 16 15 15 15 14 12 12 11 11 12 11 10 10 10 10 10 12 14 16 17 16 15 16 17 18 18 18 18 18 18 18 17 16 17 16 16 18 20 20 20 20 22
17 18 20 22 25 26 28 31 34 35 33 31 29 28 24 22 21 20 19 17 17 17 16 15 15 14 13 12 11 12 12 12 11 11 11 11 12 13 15 17 17 15 15 17 17 17 18 17 17 16 16 17 16 15 15 14 16 18 20 19 19 19 21
17 19 21 23 24 26 27 30 34 35 33 32 30 28 24 22 21 20 18 16 15 15 16 15 15 14 14 13 12 13 13 12 12 12 12 13 14 15 16 18 17 15 16 18 17 16 16 16 15 15 15 15 14 13 13 14 16 19 19 19 19 19 20
17 19 21 23 24 26 27 30 34 36 34 33 31 28 25 23 21 19 18 16 15 14 14 15 15 15 14 13 12 13 13 13 13 13 14 14 15 16 17 18 17 16 17 17 16 15 14 14 14 14 14 13 12 12 12 13 16 19 19 19 19 19 20
16 17 19 22 24 26 29 30 34 37 35 33 31 27 24 22 21 20 19 17 15 15 15 15 15 14 14 13 13 13 13 13 13 14 15 15 16 16 17 18 16 16 17 15 14 15 14 14 14 14 13 13 12 13 12 12 15 18 18 18 18 18 19
14 14 17 20 23 26 28 29 33 36 35 33 29 25 22 21 21 21 19 16 15 16 16 16 15 15 14 13 13 13 13 13 13 15 15 16 16 16 17 17 15 15 15 13 13 15 15 14 14 14 13 12 12 13 13 13 15 16 17 17 18 18 20
12 13 15 18 21 23 24 27 33 36 34 31 26 23 22 21 21 21 19 17 17 17 17 16 15 15 15 14 13 13 13 13 14 15 15 15 15 15 15 15 14 14 14 13 13 14 14 15 15 14 14 13 13 14 13 13 15 17 17 18 18 18 20
9 11 14 16 18 21 24 30 35 36 34 30 25 23 23 21 21 20 19 18 19 18 17 16 15 15 15 14 13 13 12 13 13 14 15 15 15 15 14 14 13 13 14 14 14 14 14 15 14 14 15 14 14 15 14 13 16 18 18 19 19 19 20
7 9 11 13 16 20 25 32 36 34 32 28 24 23 23 21 21 21 20 20 19 19 18 16 16 16 15 14 13 12 12 13 13 14 15 15 14 14 14 13 13 13 13 13 14 15 14 14 15 15 15 16 17 17 16 14 16 19 20 20 19 19 19
7 7 10 13 16 19 25 32 35 32 29 26 22 20 20 21 22 23 22 22 20 19 18 17 17 16 14 13 13 12 12 12 13 14 14 13 14 14 13 13 12 13 14 15 16 15 13 14 17 18 17 17 19 19 19 19 17 17 19 19 19 19 19
8 8 11 14 16 20 26 31 32 29 27 25 23 19 18 22 24 24 23 23 21 19 19 19 18 16 14 14 13 12 12 12 13 13 13 13 13 13 13 14 14 13 14 15 15 14 14 15 18 19 19 20 22 21 22 21 17 15 17 19 18 18 19
11 11 14 15 17 22 26 29 30 28 25 24 22 21 22 24 26 26 25 24 22 21 21 21 18 15 15 14 13 12 12 12 13 13 12 12 12 13 15 17 17 16 15 16 16 16 17 18 18 18 19 21 23 23 22 20 16 15 17 18 17 16 17
14 16 17 18 20 22 25 28 28 25 23 21 19 21 24 26 28 29 28 25 24 23 22 20 17 16 15 15 14 13 13 13 12 12 12 13 14 16 18 18 17 17 17 19 20 20 19 19 18 18 18 18 20 21 21 20 17 15 16 16 16 15 15
18 18 18 19 21 23 27 29 26 23 22 21 20 22 24 25 27 29 29 27 27 25 21 18 17 16 16 16 16 16 16 15 13 12 14 16 15 16 19 19 18 17 18 19 20 21 20 20 19 18 17 16 17 18 20 20 17 13 13 14 15 15 15
20 20 20 21 24 26 27 27 26 23 21 19 21 25 24 21 22 27 29 28 29 26 22 19 20 19 18 18 18 17 17 17 14 13 15 16 15 15 17 18 18 17 17 19 20 21 22 21 20 18 17 17 17 17 20 19 15 11 11 13 14 15 16
20 20 20 19 21 24 26 24 24 24 22 20 21 25 23 19 20 24 27 28 28 27 24 22 23 22 19 19 19 18 18 15 13 14 16 15 15 16 16 18 18 17 17 18 18 20 22 22 19 17 17 19 19 18 18 18 14 14 14 12 13 15 16
20 19 18 16 17 21 23 23 21 22 23 24 23 23 22 20 21 23 24 24 25 26 25 24 23 22 20 20 19 17 15 13 13 15 16 15 15 16 16 16 16 15 16 16 16 18 20 19 17 17 18 20 20 18 17 16 14 15 15 12 12 14 15
20 18 16 15 16 17 18 19 19 20 22 24 24 23 21 20 21 23 22 22 23 25 25 23 21 21 21 19 16 13 13 12 10 11 13 15 15 15 14 14 12 12 13 14 14 15 15 14 14 15 17 19 20 18 17 16 14 14 15 14 14 14 15
17 15 14 14 13 13 14 15 16 16 17 18 18 18 18 19 20 20 19 19 20 21 22 20 19 19 19 16 13 11 14 15 12 10 11 13 13 13 12 12 11 11 13 14 14 13 13 12 12 13 14 17 19 18 16 15 14 15 16 15 14 14 14
14 13 12 11 10 9 9 10 10 10 10 11 13 16 17 17 15 13 14 14 13 14 16 17 16 14 11 9 8 9 14 18 16 14 14 14 16 17 15 12 14 14 15 15 15 14 14 12 11 11 13 15 16 16 14 13 14 16 18 17 15 15 14
11 10 9 9 8 7 7 8 8 9 10 12 14 15 15 13 10 9 10 11 11 13 13 14 14 11 7 7 9 11 14 15 13 12 15 17 18 19 17 16 19 19 18 19 20 19 17 14 12 14 15 14 14 15 15 16 17 18 18 17 17 16 14
10 9 8 7 7 7 8 9 11 12 13 14 14 14 13 13 12 10 9 10 13 14 13 12 13 11 8 8 9 10 11 11 10 13 16 17 14 12 14 17 19 18 19 21 21 19 17 15 15 17 17 14 14 16 17 17 17 17 17 16 16 15 14
10 10 8 8 8 9 10 11 12 13 13 13 13 13 13 13 13 10 9 11 15 14 12 13 14 12 9 8 10 10 12 13 12 13 14 14 11 10 11 14 17 18 19 20 19 17 16 16 16 16 15 12 12 15 15 14 15 16 16 15 14 13 12
10 8 8 9 9 10 11 12 12 11 10 10 10 10 10 9 9 9 8 11 13 12 12 14 13 10 8 9 10 12 14 14 12 11 11 9 10 11 10 12 16 18 18 18 18 17 16 15 14 14 13 12 12 14 13 13 13 14 14 13 12 11 11

ECMWFFLT1_850_spd_006.txt.gz
Wind_Speed
31 29 29 32 31 29 31 33 34 33 32 32 31 29 27 26 26 25 23 21 19 15 12 10 9 9 9 10 10 9 8 7 6 5 4 4 4 4 5 5 6 6 6 6 7 8 9 9 10 11 12 12 12 12 13 14 15 15 14 14 13 12 10
29 29 28 30 32 30 31 34 34 33 33 33 32 30 28 28 28 26 25 22 19 16 13 11 10 10 9 10 10 10 9 7 7 8 5 2 3 4 3 4 6 6 5 6 8 9 9 9 9 11 11 12 12 12 13 14 14 14 14 14 14 14 12
25 26 27 29 31 32 32 34 34 34 36 36 35 33 30 29 29 28 26 23 20 17 14 12 12 11 10 11 11 10 10 9 8 8 5 2 3 5 6 6 5 4 5 7 8 9 9 9 10 11 11 12 12 13 14 14 14 15 15 15 15 15 14
28 27 25 25 30 32 32 36 36 35 37 39 38 35 32 31 30 30 28 24 21 19 15 13 13 12 11 12 11 10 11 11 9 8 7 6 6 7 7 5 3 4 6 8 9 9 10 11 12 12 12 12 13 14 14 14 15 17 17 16 15 15 14
33 36 28 22 27 29 31 37 38 36 35 37 38 36 33 32 32 31 29 25 21 19 16 15 14 12 12 13 11 10 11 12 11 9 7 7 7 7 5 3 3 5 7 9 9 10 11 13 14 14 13 13 13 13 13 14 15 16 17 16 16 16 15
28 38 30 22 28 33 32 34 38 39 37 35 36 36 33 33 33 31 30 27 23 20 18 17 15 13 13 14 12 12 12 12 12 10 7 7 7 6 5 4 3 5 7 8 9 11 12 13 14 15 14 14 14 14 14 15 16 16 16 16 16 16 16
20 30 30 26 31 39 37 32 34 39 40 36 35 35 33 32 31 30 29 27 25 23 21 19 16 14 15 15 13 13 12 11 11 9 6 5 5 5 5 3 3 7 8 7 9 12 13 14 16 16 16 16 16 16 16 17 16 16 15 16 16 15 15
15 21 28 29 31 37 39 34 32 35 38 38 39 37 34 33 31 29 28 26 25 24 22 20 18 17 16 15 14 14 12 11 11 9 7 6 6 7 6 4 6 9 9 8 9 11 13 15 17 17 18 18 18 17 17 16 17 17 16 15 16 15 15
7 14 23 26 25 31 36 35 34 36 37 39 41 38 36 35 33 31 28 25 24 24 22 20 19 19 17 16 15 13 12 11 12 12 10 8 8 8 7 6 8 10 10 9 9 11 12 14 16 17 19 20 20 19 19 19 19 18 17 17 18 17 16
4 10 18 19 20 26 34 37 36 37 38 40 40 39 38 37 36 34 30 26 24 24 22 20 20 20 18 16 15 13 11 11 12 13 11 10 9 8 7 5 7 8 8 9 11 12 12 13 14 16 18 19 19 19 20 21 22 21 19 19 19 18 18
5 11 15 18 22 26 31 36 38 38 39 41 42 42 40 37 36 36 32 28 26 24 22 20 21 22 19 15 14 13 11 11 12 13 11 10 9 8 8 8 9 9 7 9 12 12 12 13 15 16 17 18 19 20 20 20 22 24 22 19 18 18 19
5 11 16 18 23 28 29 32 36 39 40 42 42 42 40 39 39 36 31 30 29 26 24 23 23 21 18 15 14 14 13 12 12 13 12 11 10 9 9 10 9 8 8 10 13 14 15 15 15 15 16 17 18 20 20 18 20 23 23 20 18 18 19
8 9 15 16 20 27 30 30 33 38 40 41 41 39 38 39 40 37 32 32 30 26 27 28 25 21 18 16 15 15 14 13 13 13 13 12 11 10 10 10 9 11 13 15 15 16 16 14 13 14 16 17 18 19 20 18 18 21 23 21 18 18 17
12 8 13 19 22 25 29 31 35 38 40 41 41 39 36 36 38 36 33 30 27 27 31 30 25 20 18 17 16 15 14 13 14 14 13 13 12 12 11 11 12 14 15 14 13 13 12 12 13 15 17 18 18 17 18 17 17 19 21 20 17 16 17
11 11 13 19 24 28 29 30 33 36 39 40 40 39 37 36 36 34 33 32 29 30 33 30 22 19 18 17 17 17 16 15 15 15 15 14 13 13 12 11 12 14 14 13 12 12 12 13 15 16 17 17 17 16 16 17 17 18 19 19 17 17 17
13 14 15 19 23 26 30 32 32 32 34 37 38 38 38 38 37 34 34 37 35 32 31 23 15 16 19 17 16 16 15 16 17 17 16 15 14 13 12 11 12 13 14 14 14 13 12 13 14 15 15 16 17 16 16 17 17 17 17 16 16 17 17
17 19 17 21 25 25 27 31 33 32 32 35 39 39 39 39 37 36 38 41 39 34 27 16 13 18 21 18 15 15 15 16 18 18 17 15 14 12 12 11 12 13 14 16 16 14 13 13 13 14 16 17 17 16 15 17 20 19 19 17 16 16 16
16 20 17 16 23 27 28 28 31 33 33 35 39 41 41 40 39 39 43 43 40 33 22 14 17 23 23 18 16 17 18 18 19 18 17 15 14 12 11 11 12 13 15 16 16 15 13 13 14 14 16 17 18 17 17 20 22 21 21 20 18 17 16
16 17 15 13 15 22 28 30 31 33 33 33 37 38 38 41 43 44 45 43 41 34 22 18 22 25 22 19 18 19 20 21 20 19 17 16 15 13 12 12 13 14 15 16 16 16 15 15 15 15 15 17 18 19 20 22 23 22 21 21 20 19 18
16 17 17 17 17 18 24 30 31 32 34 36 37 36 34 36 41 45 45 45 42 33 24 24 26 25 23 20 19 21 21 21 21 19 17 16 15 13 13 13 14 14 16 16 16 16 16 16 16 16 16 17 19 21 22 22 21 21 21 22 22 22 21
14 16 16 17 18 19 20 27 31 34 38 40 39 38 37 37 41 45 41 37 33 26 24 27 27 25 25 24 22 22 23 21 20 20 17 15 14 14 14 14 15 15 16 17 18 18 17 17 17 17 17 18 20 22 23 21 19 19 21 23 23 22 21
13 14 14 14 16 17 18 23 30 34 37 39 37 38 40 40 40 39 31 23 20 22 25 28 27 26 28 26 24 23 23 21 20 19 17 15 15 15 14 14 15 16 17 19 20 20 18 17 18 18 18 19 20 21 22 22 20 20 22 22 22 21 21
13 13 11 11 12 14 16 18 24 29 33 36 36 35 38 38 37 35 28 19 19 24 27 28 29 29 29 27 24 22 21 20 18 17 17 16 16 15 14 14 16 17 18 19 19 19 19 18 18 19 20 22 21 20 22 22 20 19 21 21 21 21 21
11 11 9 8 9 11 13 15 19 23 26 32 35 33 31 32 32 28 22 19 22 27 31 31 31 30 28 26 23 20 19 18 17 16 16 16 16 15 14 14 15 16 17 17 17 18 19 19 19 20 22 24 22 20 21 21 20 19 19 20 20 21 20
8 7 5 5 7 10 12 15 17 19 23 30 34 29 24 26 27 20 14 18 25 28 30 31 29 26 23 21 19 18 18 18 16 16 17 17 17 16 15 14 13 13 15 17 18 18 20 21 22 22 24 24 23 21 22 22 19 18 17 18 21 22 20
3 5 3 4 7 9 12 15 17 19 24 29 31 28 25 27 24 16 13 19 26 27 27 28 26 23 19 17 16 16 17 17 17 17 18 18 17 17 16 15 15 16 17 16 16 18 19 21 24 27 27 26 24 23 22 20 19 20 19 20 22 22 19
4 5 4 6 9 11 12 14 17 20 23 24 24 25 27 25 19 16 19 24 26 24 22 21 20 18 17 16 15 15 16 17 17 18 18 18 18 17 17 17 19 19 17 16 17 18 20 22 25 27 26 25 25 23 21 18 17 20 21 22 22 20 17
8 7 7 10 13 13 13 13 16 18 21 21 21 23 22 16 15 18 23 25 23 20 18 15 14 13 13 15 15 15 17 18 18 18 18 18 17 18 17 16 16 16 16 17 18 19 20 22 24 25 24 24 24 23 22 21 17 17 19 20 20 17 15
7 5 5 7 10 11 11 12 14 15 16 17 21 23 19 16 18 21 20 18 16 15 14 13 13 12 13 13 13 16 19 20 20 20 20 19 20 20 17 14 14 14 15 17 20 21 21 22 23 23 24 24 21 18 19 20 16 14 15 17 17 16 15
6 5 3 4 8 9 10 13 17 15 11 11 15 16 15 17 19 17 14 13 13 12 12 12 12 13 13 12 13 17 19 20 22 23 22 20 21 19 15 13 14 14 14 17 20 21 22 22 22 22 22 22 19 17 19 19 16 14 14 15 16 16 15
9 8 6 5 9 10 9 13 19 18 11 10 13 14 14 18 19 15 12 12 12 12 12 12 12 14 15 16 17 18 18 20 22 21 20 20 20 17 14 12 13 13 14 17 19 20 21 22 21 20 20 20 19 20 20 19 16 14 14 14 15 16 16
5 9 12 9 10 14 14 15 19 18 13 12 13 10 9 11 11 8 6 7 10 11 14 16 17 17 17 20 22 21 21 23 21 18 18 18 17 14 12 10 11 13 14 15 16 17 18 18 18 17 18 19 19 19 18 16 13 13 13 14 15 17 18
2 5 10 11 13 14 14 15 18 17 15 14 12 8 5 3 1 4 6 9 12 14 15 16 17 17 16 19 24 23 20 18 16 15 15 11 7 8 8 10 12 13 12 12 14 15 16 16 17 17 17 18 19 17 14 12 12 13 15 16 17 17 16
7 4 6 10 14 14 15 19 21 19 15 13 12 10 7 6 8 9 9 11 11 11 11 11 10 9 8 13 17 17 14 11 10 12 11 6 6 9 10 9 10 11 12 15 17 18 18 18 19 19 17 18 18 16 13 12 13 15 17 18 17 16 13
10 8 9 12 14 15 18 21 20 16 12 11 10 10 9 7 7 5 5 7 6 4 5 6 5 5 7 8 9 10 11 11 9 8 8 8 9 11 11 9 10 13 16 18 19 19 19 20 20 18 16 16 17 16 14 13 15 16 17 17 16 14 13
11 10 10 12 13 13 15 16 15 14 13 9 6 6 5 5 6 4 2 3 3 1 2 4 5 6 7 8 9 11 11 10 8 7 8 8 8 9 12 13 14 15 17 17 18 18 18 19 18 15 13 13 14 14 13 14 15 15 16 16 15 14 14
13 12 12 11 11 12 15 15 12 10 8 6 5 5 5 3 2 2 2 2 4 3 3 5 7 8 8 7 9 10 10 9 9 9 9 8 8 10 13 15 15 14 15 15 16 16 16 16 14 11 9 11 12 12 12 13 13 13 14 14 13 13 13
15 16 14 9 5 4 4 4 4 6 7 7 7 6 7 6 4 2 1 1 3 3 4 6 7 8 8 8 11 13 11 10 11 10 9 8 8 9 11 13 14 14 13 14 16 16 15 13 10 7 7 9 10 11 12 12 12 12 12 11 12 12 12

ECMWFFLT1_850_spd_009.txt.gz
Wind_Speed
36 43 45 44 43 43 45 46 44 42 41 41 40 38 38 37 35 34 32 31 30 28 26 23 20 17 14 11 9 8 7 6 5 5 4 4 5 6 5 5 5 5 6 6 6 6 6 7 7 7 6 7 8 8 8 9 10 10 10 10 10 10 8
34 41 45 44 43 42 45 46 45 44 42 42 42 41 40 39 37 35 34 32 31 30 27 24 21 18 15 12 10 9 8 7 6 5 3 3 5 6 6 5 4 4 5 5 4 5 5 6 7 6 6 7 8 9 9 9 9 9 10 12 12 12 10
36 38 43 45 44 42 44 46 46 45 45 44 44 43 42 40 39 37 35 34 33 31 28 25 22 19 16 13 11 10 9 8 7 4 3 4 5 5 5 4 4 5 4 2 3 5 6 8 8 8 8 8 9 9 10 9 9 10 12 13 14 14 13
37 36 42 46 45 43 44 46 47 46 46 46 45 45 44 42 41 38 37 35 34 32 30 26 23 20 18 15 12 11 10 9 7 5 4 5 5 4 5 7 7 5 3 3 6 7 8 9 8 8 8 9 9 10 10 9 9 10 12 13 14 14 13
36 34 38 44 44 44 44 45 47 47 47 47 46 46 45 43 42 40 38 36 34 32 29 26 24 22 20 17 14 12 10 9 7 6 5 6 6 7 9 9 6 2 1 3 5 7 7 7 6 8 10 9 9 10 10 10 10 11 12 13 14 14 13
37 36 38 43 44 45 44 45 47 48 47 47 47 46 46 44 42 41 39 37 35 32 29 27 25 24 22 18 15 13 11 9 7 6 7 7 8 8 9 7 3 1 0 2 3 4 5 5 7 11 11 9 11 13 12 10 10 11 13 14 14 14 14
37 37 39 42 44 45 45 44 46 47 46 46 46 45 45 44 43 42 40 38 37 34 31 29 27 25 23 20 17 14 12 10 8 7 8 8 8 9 8 6 4 2 1 3 4 5 6 6 9 13 13 12 14 16 14 13 12 12 13 13 14 15 14
34 36 38 40 43 44 44 44 44 46 46 45 45 45 46 45 44 42 41 40 38 36 33 31 29 27 24 21 18 14 12 10 9 7 8 8 9 8 7 7 6 3 5 5 6 8 9 9 11 13 13 13 15 16 16 16 15 15 16 15 15 15 15
33 36 38 38 39 39 41 43 43 44 45 45 46 46 46 45 44 44 43 41 40 37 35 33 30 28 26 22 18 14 12 11 10 8 8 9 10 8 6 6 5 4 7 8 9 10 10 10 12 12 12 14 16 16 16 17 18 18 18 17 17 16 16
31 35 36 35 37 37 38 41 42 43 44 45 46 47 47 46 45 44 43 42 41 39 37 35 33 30 27 22 18 15 12 11 10 7 7 9 10 7 6 5 4 5 8 9 9 10 10 10 11 12 13 15 16 16 16 17 17 17 17 17 18 18 16
29 33 35 35 38 38 38 39 40 42 44 45 46 47 47 47 45 44 44 43 42 40 38 37 34 32 28 23 19 16 13 12 10 6 7 10 10 9 8 6 5 6 8 8 8 9 11 13 14 15 16 15 14 14 13 13 14 16 17 18 19 18 16
25 32 36 37 38 38 39 39 40 42 44 46 48 47 47 47 46 45 44 43 41 40 39 38 35 32 29 24 19 16 14 12 10 7 8 11 12 11 11 9 9 10 11 11 12 12 14 16 17 17 16 13 13 14 14 14 15 17 19 18 17 16 16
22 28 33 34 35 36 38 40 40 42 44 47 48 48 48 48 46 46 45 43 41 39 38 37 34 32 29 24 19 17 15 12 9 8 9 12 12 11 11 11 12 14 14 14 15 16 18 18 17 16 14 13 16 17 17 16 16 16 17 16 16 16 16
19 23 27 31 33 35 36 38 40 42 44 46 47 47 47 47 47 46 45 43 41 38 37 35 34 33 29 24 19 16 14 11 9 10 10 12 12 11 10 11 12 14 14 15 16 17 18 17 15 14 13 14 16 15 14 15 15 15 16 17 17 17 17
19 20 25 29 30 30 31 33 38 42 44 46 47 47 47 46 47 46 45 43 41 37 36 36 35 35 31 25 19 14 11 10 11 12 12 13 13 12 13 13 14 14 14 13 13 14 13 12 12 12 12 13 13 12 14 17 17 16 15 15 16 18 18
16 17 23 28 29 28 29 31 34 39 44 47 47 48 47 46 47 47 45 44 41 38 38 38 36 35 33 27 19 12 9 11 14 16 16 16 16 14 15 15 15 13 12 11 11 11 11 11 11 12 12 12 12 13 17 18 17 15 15 16 17 19 20
7 8 12 18 25 29 30 31 34 37 42 46 47 47 47 46 47 45 42 41 40 39 40 39 37 36 34 29 18 10 8 13 17 19 19 19 19 17 16 15 13 12 11 11 12 12 12 13 12 13 13 13 14 16 18 18 18 17 17 18 19 19 20
1 4 6 9 14 23 31 34 36 37 39 42 44 45 45 45 42 38 36 37 38 39 40 40 38 36 34 28 18 9 9 15 20 23 23 23 22 19 17 14 12 12 12 12 12 13 14 14 14 14 14 15 16 17 18 19 19 19 20 20 19 18 19
5 7 9 12 13 14 22 31 36 37 37 38 40 43 42 41 40 38 40 42 43 44 43 40 38 36 32 26 16 11 13 19 24 26 25 24 22 19 16 15 13 13 13 13 13 14 15 15 16 15 15 16 17 19 20 20 20 21 22 21 18 17 19
5 6 9 13 15 14 16 23 29 33 36 36 36 39 39 39 41 42 44 46 47 48 47 44 41 37 31 24 18 18 19 23 25 25 23 21 19 17 15 15 14 14 14 14 14 15 16 17 17 16 15 17 18 20 21 21 21 23 23 22 19 19 20
7 8 11 14 16 16 15 16 20 25 32 34 33 35 37 40 44 44 42 44 45 45 44 41 39 34 28 23 22 23 25 27 25 23 21 19 18 16 15 15 15 15 15 15 16 16 17 17 18 18 17 17 18 20 22 22 21 22 23 23 22 20 21
12 10 12 13 15 16 15 15 18 20 26 30 31 33 35 39 42 40 39 43 43 41 38 34 32 29 24 24 25 25 29 29 25 23 22 20 18 18 17 17 17 16 15 17 17 17 17 18 20 20 18 17 18 20 20 20 20 21 21 21 20 20 21
13 8 9 10 9 9 12 13 12 14 23 29 32 35 38 41 43 40 40 42 41 40 38 34 32 28 24 26 27 30 32 29 25 23 22 21 20 20 20 20 19 18 17 17 18 17 17 17 18 18 17 16 17 18 19 22 24 25 23 22 20 19 20
10 8 9 7 3 3 6 7 3 8 17 22 26 28 30 33 35 36 38 39 39 39 37 36 34 29 25 27 30 32 33 30 25 23 22 22 22 22 22 22 22 20 18 17 17 17 16 16 15 14 15 16 17 20 22 25 27 27 26 26 24 19 18
8 5 3 3 2 2 5 6 3 5 11 17 21 23 22 21 22 25 29 31 30 30 32 32 30 26 26 29 31 33 33 31 27 25 24 24 25 24 24 24 23 20 17 14 15 16 15 14 13 13 14 17 19 22 24 26 27 26 26 26 23 19 19
8 5 3 4 1 4 6 8 5 3 9 14 20 23 23 24 25 25 24 23 22 25 29 30 27 26 28 30 33 35 35 32 29 27 26 27 28 27 26 25 23 19 16 14 15 15 15 14 14 16 17 19 21 23 24 25 26 24 22 22 22 20 19
4 4 2 2 1 5 7 7 6 3 5 8 14 18 22 25 28 26 22 20 22 25 27 26 24 25 29 31 33 34 33 30 28 27 26 26 26 25 25 23 21 19 16 15 16 16 17 18 19 19 20 20 21 22 23 25 25 22 19 20 21 19 18
5 3 5 4 7 10 9 6 3 2 4 5 8 12 17 22 22 17 13 14 17 19 20 20 23 27 30 31 32 31 28 27 26 25 24 25 25 25 24 22 20 18 17 16 16 15 18 19 20 20 20 21 21 21 22 22 21 19 18 19 19 19 17
7 3 7 8 8 8 6 5 5 5 5 6 7 9 14 19 17 12 10 12 14 15 16 18 22 27 29 29 29 27 25 25 25 25 25 24 25 25 24 21 19 17 15 15 15 17 18 17 18 20 21 21 22 22 21 20 18 17 18 19 20 18 16
4 4 6 7 8 6 4 5 7 9 8 8 8 11 14 16 15 12 11 13 14 15 16 17 18 22 27 28 27 27 26 25 25 26 25 24 25 24 22 20 17 15 14 14 17 19 17 16 17 19 20 20 21 21 20 19 18 18 18 19 18 15 13
7 7 6 7 8 7 6 6 11 14 12 11 11 13 16 16 15 14 15 15 15 16 18 17 16 18 20 21 21 22 22 21 22 23 24 23 23 21 19 18 18 17 16 17 18 16 14 14 15 17 17 18 19 19 19 18 18 18 17 15 13 12 13
9 8 7 7 9 10 10 11 16 18 17 16 15 17 18 17 16 17 17 14 13 14 14 12 11 12 13 14 14 16 16 16 18 20 22 22 21 19 19 18 18 19 20 18 14 13 13 14 14 15 16 18 20 19 18 19 18 17 15 13 12 12 14
9 9 10 9 12 16 18 20 22 21 20 21 20 21 22 21 21 21 17 11 7 7 7 7 9 10 10 10 11 12 12 12 15 17 20 21 21 19 19 19 20 21 20 15 13 14 14 14 15 16 17 19 21 20 19 18 18 15 13 12 12 13 14
10 11 11 13 17 21 23 24 24 23 24 26 25 23 22 22 22 20 14 8 5 6 9 11 11 8 6 6 7 8 9 11 14 16 18 19 19 18 17 17 17 16 15 14 15 15 15 16 17 18 19 20 21 21 19 18 16 14 12 12 12 12 12
10 12 14 16 19 21 22 23 24 25 24 23 21 17 15 13 14 12 10 8 9 10 10 10 9 7 6 7 8 8 9 12 14 16 18 18 17 15 13 12 12 12 13 14 15 16 16 17 18 18 19 20 20 20 18 16 14 12 12 12 12 11 11
11 12 13 16 18 19 20 22 23 22 20 17 15 12 10 10 11 9 7 9 11 11 8 6 6 6 6 6 7 7 8 10 12 13 14 14 13 12 12 12 12 12 13 14 16 16 16 16 16 17 18 18 17 16 14 13 12 12 11 11 10 9 10
11 12 12 15 18 19 20 20 20 20 18 15 12 10 9 12 12 6 8 11 11 9 7 5 4 3 2 4 7 8 9 11 13 13 13 13 14 14 14 13 13 14 15 16 16 15 15 14 16 17 16 15 14 13 12 11 11 10 9 8 8 8 9
8 10 11 13 16 17 18 19 19 18 15 11 9 10 7 4 5 10 16 17 13 8 6 4 4 6 8 9 10 9 10 13 14 14 15 15 16 16 15 14 14 15 16 16 15 14 13 14 14 14 13 11 10 9 9 9 8 7 7 6 6 7 8

ECMWFFLT1_850_spd_015.txt.gz
Wind_Speed
40 40 42 44 45 47 48 49 48 47 46 45 43 41 40 39 39 39 39 39 40 39 39 37 36 34 32 29 27 24 22 19 17 16 16 17 18 18 17 17 17 17 16 15 14 13 13 12 12 11 10 8 7 8 8 7 7 7 7 7 7 7 7
38 40 42 43 46 48 49 47 46 47 46 45 44 42 42 42 42 42 42 42 42 41 41 39 38 36 33 31 28 26 24 21 19 17 18 19 19 17 17 17 17 17 15 14 14 13 13 12 11 10 9 8 8 8 7 6 7 8 8 8 9 9 8
38 41 43 45 48 50 50 47 47 47 46 46 45 44 45 44 44 44 44 44 44 43 42 41 39 37 35 32 30 28 26 24 21 20 20 20 19 17 17 17 17 16 14 13 13 12 12 12 11 9 8 8 8 7 5 5 6 8 9 10 10 11 10
40 43 44 46 49 50 48 47 48 48 48 47 46 46 47 46 46 45 45 46 46 45 44 43 42 39 37 35 33 31 28 26 24 22 21 20 18 17 17 17 17 15 14 12 11 11 11 11 10 9 8 7 6 5 4 4 5 6 7 8 9 10 11
41 42 42 44 46 47 46 46 47 48 48 48 47 47 47 47 47 46 46 47 47 47 46 44 43 41 39 37 35 33 30 27 25 24 22 20 18 18 18 17 16 14 12 11 11 11 11 11 11 9 6 4 4 4 4 4 5 5 6 6 7 8 9
39 39 40 43 45 47 48 47 48 49 49 49 48 48 48 48 48 48 48 48 48 47 46 45 44 43 41 39 37 34 30 28 27 26 23 21 20 19 18 16 15 13 12 11 11 11 11 12 12 9 6 4 4 4 4 5 5 6 7 8 9 9 10
38 39 42 44 46 48 48 48 48 49 49 49 48 48 48 49 49 49 49 49 49 48 47 47 46 45 43 42 40 37 32 29 29 27 24 21 20 19 17 16 15 14 13 13 12 11 11 11 11 9 7 6 5 4 5 6 7 8 8 10 11 12 12
40 42 44 46 47 48 47 47 48 48 48 48 48 48 49 49 49 50 50 51 51 50 49 49 48 47 46 45 43 40 34 30 30 28 24 21 20 19 17 17 16 15 15 14 13 12 10 9 9 8 8 7 5 5 6 8 9 9 10 11 12 14 14
41 44 47 48 48 47 46 46 46 46 46 47 48 49 50 49 50 50 51 52 52 51 51 50 50 49 48 48 47 42 36 32 30 28 25 22 21 19 18 17 16 17 16 14 13 12 10 9 9 9 9 8 7 7 8 10 11 11 12 13 14 15 15
42 45 47 48 47 46 44 43 42 43 44 46 48 49 50 50 51 51 51 52 53 53 52 51 51 51 50 51 49 44 39 32 28 26 24 22 21 20 18 17 16 17 16 14 14 13 11 10 10 10 11 10 9 9 10 12 14 15 15 15 15 16 16
42 44 46 46 44 42 41 40 40 43 46 47 47 49 51 51 51 51 52 52 53 53 53 52 52 52 52 52 49 46 40 31 27 27 25 23 22 21 18 17 17 19 16 14 15 14 12 12 12 12 12 11 11 11 12 14 16 17 17 16 16 17 17
41 43 45 46 44 42 41 41 43 45 46 46 47 49 51 51 52 53 53 53 53 53 53 53 53 52 53 51 46 45 41 34 31 30 26 25 23 21 19 18 19 19 17 15 16 15 14 14 13 13 13 12 12 12 13 15 17 18 18 18 17 16 15
42 44 45 46 45 44 43 43 44 44 45 46 47 48 49 50 52 53 53 54 53 54 54 54 52 50 47 44 42 43 40 33 31 29 25 24 23 20 19 19 19 19 17 18 19 18 17 15 14 13 13 13 13 13 14 16 18 19 19 18 16 14 13
40 40 42 44 44 44 43 44 44 44 45 45 45 46 48 49 51 51 52 53 52 53 53 50 46 43 42 42 44 45 42 34 29 28 25 23 21 20 20 19 19 17 17 21 23 20 18 16 14 14 14 14 14 15 16 17 18 19 18 16 14 12 12
36 37 40 42 43 44 44 43 42 42 43 44 44 46 47 48 50 50 51 52 51 52 51 46 42 42 43 45 47 49 47 37 29 27 26 22 22 22 22 22 21 17 18 25 26 21 18 16 15 16 16 16 16 17 17 17 17 17 15 13 12 11 12
35 38 41 42 42 43 43 41 40 39 41 42 43 44 45 47 49 49 50 50 51 50 47 43 43 45 47 48 47 49 47 37 28 27 28 27 25 26 25 23 21 19 23 28 26 22 19 17 17 18 18 18 18 18 17 16 15 13 12 12 12 12 13
35 37 39 39 40 40 40 39 38 38 38 39 40 41 43 45 46 47 48 49 49 47 44 43 45 46 46 45 45 45 41 34 28 29 32 30 27 27 26 24 23 23 27 29 26 22 20 18 19 19 18 18 19 18 17 15 13 11 11 12 13 14 16
33 34 35 35 36 36 35 35 36 37 36 35 36 37 39 41 43 44 45 45 44 43 42 43 44 44 43 42 43 44 41 35 31 31 35 34 31 31 28 24 26 29 29 28 26 23 21 20 20 20 19 19 20 19 18 16 13 12 13 14 14 16 18
31 31 31 30 31 31 30 30 30 29 27 26 27 28 30 33 37 40 41 42 42 41 42 43 43 43 44 44 45 46 43 39 35 34 37 37 36 34 29 26 29 31 29 28 26 24 23 22 21 20 20 20 20 19 17 16 15 15 15 16 16 17 19
27 27 26 24 22 21 19 16 13 11 10 10 12 13 16 21 27 33 37 41 42 43 44 45 46 46 46 46 46 46 43 40 37 37 39 39 38 34 27 26 30 31 29 28 27 26 24 23 21 21 21 21 19 18 17 16 16 16 17 18 19 19 20
21 20 18 16 14 12 10 8 7 6 6 7 6 7 9 13 18 24 30 35 39 42 44 46 46 46 45 45 45 43 41 37 36 38 41 41 39 33 26 26 29 29 28 29 28 27 25 23 22 22 21 20 19 18 18 17 17 18 19 20 20 21 22
16 15 14 13 12 12 11 10 9 10 11 10 7 6 8 10 14 18 23 28 34 39 43 45 46 46 46 47 45 42 40 38 37 38 41 40 35 29 25 26 29 28 27 28 28 27 25 23 23 22 20 19 18 18 19 19 19 20 21 21 22 23 24
15 14 14 13 13 13 13 13 13 14 13 10 7 6 7 9 11 15 20 25 30 36 40 43 45 47 48 48 46 41 40 40 37 37 39 38 30 24 25 28 28 27 27 27 28 27 26 24 23 22 20 18 18 18 19 20 21 22 23 23 24 24 24
16 16 15 14 14 13 13 13 13 13 11 7 6 6 7 8 10 13 18 23 28 32 36 40 44 46 47 48 45 39 37 40 38 36 38 35 26 23 27 29 26 25 25 26 26 26 25 24 22 21 19 17 17 18 20 22 23 24 24 24 24 24 24
19 17 16 13 11 11 11 12 12 11 8 6 7 7 7 7 9 12 16 21 24 29 33 37 40 42 44 46 44 37 35 39 39 35 35 31 23 21 26 27 24 23 24 25 26 25 25 25 24 23 21 19 18 19 21 23 24 24 25 24 23 24 24
19 17 15 12 9 9 9 8 7 6 6 7 7 7 7 6 8 11 15 18 22 26 30 31 31 33 37 41 39 34 35 40 40 35 34 31 23 20 24 25 24 25 26 27 26 26 27 29 29 27 25 23 22 22 23 24 24 24 24 23 24 25 24
14 12 11 9 8 7 5 4 5 6 7 7 7 6 6 6 8 10 13 17 21 24 23 23 24 28 32 36 35 33 35 40 40 37 37 34 25 21 22 24 26 27 28 27 26 27 31 34 34 33 31 28 24 23 24 25 25 24 24 24 23 22 21
9 7 5 5 5 4 4 5 6 6 6 6 6 5 6 7 9 11 14 18 20 19 18 19 22 26 30 33 33 31 33 38 40 39 40 37 28 21 21 24 25 25 25 24 26 31 35 35 33 33 34 30 25 22 24 25 26 24 23 22 21 19 19
7 5 2 1 2 4 5 5 6 5 5 5 6 7 8 9 11 13 16 17 16 15 16 19 22 25 28 30 31 31 33 37 39 41 42 39 32 26 23 24 23 23 24 26 29 34 36 34 30 30 32 31 27 24 25 26 25 23 21 20 19 18 19
6 4 1 2 4 5 4 5 5 5 5 7 8 9 10 11 13 14 14 14 13 13 15 17 19 23 27 29 30 32 35 37 39 42 44 41 34 28 26 26 25 26 27 28 31 35 37 36 33 29 26 25 24 23 23 24 22 21 20 19 19 18 18
7 4 3 4 4 4 4 5 5 6 7 9 10 11 12 12 12 12 11 11 12 13 14 16 19 22 25 27 29 32 34 35 37 40 40 35 29 26 27 28 27 27 29 30 32 35 34 33 31 27 22 21 21 20 20 20 19 19 19 19 19 18 18
8 7 5 5 5 5 6 6 7 8 9 11 12 12 13 12 11 10 9 10 10 11 13 16 19 22 24 25 27 28 29 30 30 29 29 28 27 27 27 27 27 28 30 30 30 32 32 30 29 27 24 22 21 19 18 18 17 18 18 19 19 19 19
10 7 5 5 7 8 9 9 9 10 11 13 14 14 13 12 11 10 9 8 8 9 10 12 14 17 18 19 20 22 22 20 20 21 22 24 26 26 26 27 28 29 30 29 29 30 29 26 25 24 22 20 18 17 16 16 17 18 19 20 20 20 18
9 6 5 7 10 11 11 11 12 12 13 15 15 13 13 12 11 9 7 5 5 5 6 8 9 11 11 12 13 13 13 12 14 17 19 20 23 26 29 30 30 29 30 30 27 25 24 23 21 20 18 16 15 15 14 15 17 18 19 20 20 19 17
6 4 5 8 10 11 12 13 14 14 15 15 13 13 14 13 11 10 8 7 9 11 12 13 12 10 9 8 6 6 8 10 13 16 18 20 24 27 29 29 28 28 27 25 21 20 21 21 18 16 15 13 13 13 14 15 17 18 19 19 18 17 16
4 3 5 7 9 11 12 12 13 13 14 14 14 15 16 15 14 14 13 13 14 16 16 16 14 11 7 5 5 8 10 13 15 18 20 23 26 26 26 25 25 24 22 20 19 20 20 17 15 14 14 13 13 14 14 15 16 17 18 18 16 15 15
5 5 6 8 9 10 11 11 11 12 13 14 16 18 18 17 17 17 17 18 18 16 14 12 9 8 10 11 12 13 13 14 17 19 21 22 22 22 22 22 21 21 20 20 21 20 18 15 15 15 14 13 13 13 13 15 16 16 16 15 14 14 13
8 8 8 9 10 10 11 11 11 12 14 16 17 19 20 19 19 19 21 22 20 17 15 12 10 12 14 14 13 14 14 14 15 17 17 18 18 19 20 20 20 21 22 22 20 19 17 16 15 15 14 13 13 13 14 15 15 14 13 12 12 11 11

ECMWFFLT1_850_spd_021.txt.gz
Wind_Speed
29 33 38 44 47 48 47 47 45 45 44 43 42 40 40 39 38 38 37 36 36 35 34 32 31 31 31 32 32 32 32 31 30 28 27 26 25 23 21 19 17 16 15 14 14 13 12 11 11 11 9 8 8 9 9 8 7 6 6 6 7 7 8
30 34 40 45 48 49 49 47 46 46 46 44 43 42 41 40 39 39 38 38 37 36 35 34 33 33 33 33 33 34 34 33 32 30 29 29 27 24 21 18 16 15 14 13 13 12 12 11 12 11 10 9 9 9 9 9 8 7 7 7 8 8 9
32 35 41 46 49 50 50 49 48 48 47 45 44 43 42 40 38 38 39 39 38 37 36 35 34 34 34 34 35 36 36 35 34 33 32 30 28 25 21 18 17 16 14 14 13 13 12 12 12 12 11 10 10 10 10 10 9 9 8 8 8 8 8
34 37 41 46 48 50 50 49 49 48 48 47 45 43 41 39 38 38 38 38 38 38 37 36 35 35 36 36 37 38 38 37 35 34 33 31 28 25 21 19 18 17 16 15 14 14 13 12 13 12 12 10 11 12 11 11 11 9 9 9 8 8 8
34 36 39 43 46 48 49 49 49 49 49 48 45 43 41 39 39 39 38 38 38 38 37 37 36 36 37 38 39 40 39 38 37 36 34 32 29 26 23 21 20 19 17 16 15 14 13 13 13 13 12 12 12 13 13 13 11 11 10 8 7 7 7
33 37 39 41 43 46 47 48 49 49 49 47 45 43 41 41 41 40 39 38 38 38 37 37 37 37 39 40 41 41 41 40 39 38 35 33 31 28 25 23 21 20 18 16 15 14 13 13 13 13 13 12 13 15 14 14 13 12 11 9 8 8 8
35 38 39 40 41 43 43 45 46 47 47 46 45 44 42 43 42 41 41 40 39 38 38 38 38 39 40 42 43 43 42 42 42 40 38 35 33 30 28 25 24 22 19 17 16 15 14 12 11 12 13 13 15 15 15 14 14 14 12 10 10 9 10
34 36 38 39 39 39 40 43 44 44 44 45 45 44 43 43 43 43 42 40 39 39 39 39 39 41 42 43 43 44 44 44 44 42 40 38 36 33 30 27 25 23 20 18 17 15 14 12 11 12 14 15 15 15 15 16 16 15 14 12 12 12 12
28 32 35 36 37 37 39 41 42 41 42 42 42 42 42 43 44 43 42 40 40 40 39 39 40 42 43 43 44 44 45 45 45 44 42 40 38 36 33 29 27 25 22 19 17 14 12 12 12 13 14 15 16 16 16 17 17 16 15 14 13 13 13
23 29 32 33 35 37 38 39 39 39 40 40 40 40 41 42 43 43 43 42 42 41 40 39 40 41 43 44 44 45 45 47 47 46 45 43 41 39 35 31 28 26 23 20 18 16 14 13 13 13 15 17 18 18 19 19 18 17 16 15 14 14 15
21 25 29 32 34 36 37 37 37 38 39 38 38 38 39 40 41 41 43 43 43 42 40 40 41 42 43 44 45 46 46 48 49 49 48 46 44 41 38 34 31 29 27 25 25 22 18 18 18 18 19 19 17 19 21 20 19 18 16 15 15 16 16
20 24 28 31 33 35 36 36 36 37 37 37 36 36 36 37 38 39 41 42 42 42 42 42 42 43 43 44 46 47 47 48 50 51 51 49 46 43 40 36 33 32 32 30 29 27 23 22 23 22 22 20 17 18 21 21 20 18 17 17 17 17 18
21 24 28 29 32 34 34 35 35 36 36 35 35 34 34 34 35 37 38 39 40 42 43 43 43 43 44 44 46 47 48 49 50 51 53 51 47 43 41 39 36 35 35 32 31 29 25 24 25 24 23 20 17 18 21 21 20 19 18 18 18 18 18
21 23 26 29 32 33 34 35 35 35 35 34 33 33 32 33 34 35 35 35 37 40 41 41 41 42 43 44 46 47 48 49 50 51 52 49 44 42 41 40 38 38 37 34 32 29 26 25 26 25 22 20 19 20 22 22 21 20 19 19 19 18 18
23 24 27 30 32 34 35 35 35 34 33 32 31 31 31 31 32 32 32 33 35 37 38 37 37 39 41 42 44 45 46 48 50 50 49 46 44 44 43 40 39 40 39 36 33 31 29 27 27 26 23 20 21 23 23 23 22 20 19 19 18 17 18
25 26 29 32 33 34 34 33 33 32 30 30 29 28 27 28 28 29 30 31 32 33 34 34 34 35 37 39 40 41 43 45 46 47 47 45 44 45 45 43 42 43 42 39 38 36 32 29 28 28 25 23 23 23 23 23 22 19 19 18 17 16 17
27 28 31 33 33 33 33 32 31 29 28 27 25 24 24 25 25 26 27 28 28 29 29 30 31 33 34 36 36 37 39 41 42 44 44 45 44 44 46 47 48 48 45 41 41 40 35 31 30 29 28 28 25 23 24 24 22 20 19 18 17 16 16
29 30 32 33 33 31 31 31 29 27 25 23 22 22 22 22 23 23 23 23 22 23 24 26 27 29 31 33 33 34 36 38 40 42 42 43 44 43 46 49 50 51 50 46 45 42 37 33 30 28 30 33 29 25 25 25 22 20 19 18 17 16 16
31 32 32 33 32 30 29 29 27 25 23 22 22 22 20 19 19 17 16 15 15 17 19 20 22 25 27 29 31 32 34 36 38 40 40 41 41 41 45 48 46 47 50 52 51 45 38 34 30 29 33 36 32 28 26 26 23 20 19 19 18 17 17
28 30 31 30 29 28 28 27 25 24 23 23 22 20 17 14 12 9 8 9 10 12 14 15 17 20 22 25 28 30 32 34 36 37 38 38 38 38 42 45 43 42 46 51 52 46 38 34 32 31 35 36 32 29 28 27 24 21 20 20 19 18 18
22 23 25 26 26 27 27 25 23 22 21 20 18 15 13 12 11 10 9 8 7 8 9 10 13 16 19 22 25 28 30 32 33 35 35 35 35 37 40 42 42 43 44 46 48 43 37 35 34 34 36 34 30 30 29 27 25 22 20 20 20 19 19
20 20 22 24 26 25 23 20 19 17 16 16 15 16 17 16 14 12 9 7 5 5 5 8 10 13 16 20 22 25 27 29 30 32 32 32 33 35 38 40 42 42 40 41 43 41 38 36 36 36 35 30 27 29 30 28 25 23 22 21 21 21 20
15 19 21 21 20 17 15 14 13 14 16 19 20 21 20 17 14 11 9 7 5 4 5 6 8 11 14 17 19 21 24 26 28 28 28 29 31 34 36 39 41 38 35 36 38 37 36 36 36 37 33 27 25 26 29 29 26 25 23 22 22 23 23
13 16 16 15 15 15 17 18 20 21 23 24 23 21 18 15 13 11 9 7 6 5 6 6 7 9 11 14 16 19 21 23 24 24 24 25 29 32 34 37 37 35 34 35 32 29 32 35 36 35 31 27 25 25 27 28 27 25 24 24 24 25 25
14 16 17 19 21 23 25 26 27 27 26 25 22 19 16 14 12 10 8 7 7 7 7 7 8 9 10 12 14 16 18 20 20 20 20 22 26 29 31 31 30 30 33 34 30 28 30 34 35 33 30 28 27 26 26 27 27 26 25 26 26 26 27
20 23 25 27 27 28 29 28 28 28 26 21 17 16 14 12 11 9 8 8 8 8 8 9 9 9 9 11 12 14 16 17 16 16 18 20 22 25 27 27 26 27 31 31 28 27 28 31 32 30 28 27 27 26 25 26 26 26 27 28 27 27 30
25 27 29 29 28 28 27 26 26 25 22 17 14 12 11 10 10 9 9 8 8 9 10 10 10 9 10 10 10 12 13 13 12 14 16 18 20 21 23 24 25 26 27 26 25 25 27 28 27 26 26 27 26 26 25 25 26 27 28 29 29 29 31
29 30 29 28 26 25 25 24 23 21 17 14 11 10 9 10 11 10 9 9 10 11 12 11 11 11 11 10 9 10 10 10 11 13 15 17 18 20 21 24 25 24 24 23 23 26 27 27 25 24 25 25 23 23 24 25 26 28 28 29 30 30 30
32 31 30 29 26 24 22 22 20 17 13 11 10 9 10 11 11 9 9 10 12 13 13 13 12 12 11 10 9 8 8 9 10 13 13 14 17 18 20 24 24 21 21 23 24 25 25 23 19 19 18 17 17 20 21 20 22 26 26 26 28 28 26
30 29 27 26 24 21 18 17 15 12 9 9 9 10 11 11 10 8 9 11 13 14 14 13 13 12 11 10 9 8 8 9 11 12 12 13 16 18 22 24 22 19 22 25 24 24 23 18 13 13 12 11 13 17 17 13 13 17 19 22 25 25 23
26 25 23 22 21 19 15 13 12 10 10 11 12 12 12 11 9 8 10 12 13 13 13 13 12 12 11 10 9 7 8 9 10 11 11 12 14 18 23 24 22 20 24 25 24 24 24 19 15 15 13 10 11 14 15 12 10 12 16 20 22 21 20
22 21 19 19 18 16 13 12 11 10 10 11 11 11 10 9 9 9 10 12 12 12 12 12 12 11 11 9 8 8 8 9 11 11 11 12 14 18 22 23 22 21 23 25 25 26 25 23 20 19 14 10 9 11 13 13 11 12 15 18 19 17 16
19 17 16 15 14 13 11 10 10 9 9 8 8 8 8 8 9 9 10 10 10 11 12 12 12 11 10 10 9 9 9 10 11 11 11 13 16 18 19 20 21 22 23 24 25 27 27 24 22 19 13 9 9 10 11 11 11 12 14 15 15 14 13
16 14 13 11 10 10 9 8 8 8 8 9 8 8 8 8 7 7 7 8 9 10 11 11 11 10 10 9 9 10 10 10 10 10 11 13 15 16 15 16 18 20 23 25 25 25 24 22 18 14 9 7 8 10 10 9 10 12 12 12 12 11 11
13 11 10 8 7 6 6 6 7 7 8 8 8 8 8 7 6 6 6 6 8 9 10 10 10 9 9 9 9 9 9 8 8 10 11 13 14 13 12 12 14 18 22 24 23 21 20 17 12 8 7 7 9 8 8 8 9 9 10 10 10 11 12
10 9 8 6 5 4 4 4 4 4 5 5 5 6 5 5 4 4 5 6 7 8 8 7 7 7 7 8 8 8 9 9 9 10 11 11 11 10 9 10 12 15 18 19 19 17 14 10 8 7 8 8 8 6 6 8 8 8 9 10 10 11 12
7 7 7 6 5 5 4 3 3 2 2 2 2 3 3 3 3 3 4 6 6 6 4 3 3 4 5 6 8 9 9 9 10 10 10 10 11 11 12 12 12 13 14 14 13 11 8 7 7 7 7 7 6 5 6 8 8 8 9 10 10 12 14
5 5 4 4 4 4 4 3 3 1 1 1 1 1 2 2 2 2 4 5 5 4 4 5 5 5 5 6 7 8 9 9 9 9 10 12 13 14 13 13 12 11 11 10 8 7 6 5 4 3 3 3 4 5 7 8 9 10 10 11 12 13 14

ECMWFFLT1_850_spd_024.txt.gz
Wind_Speed
23 26 28 29 31 33 36 37 36 38 40 40 41 41 40 39 39 39 38 38 37 35 34 34 33 33 33 33 32 32 31 30 30 29 28 26 24 23 22 21 19 18 17 16 14 14 15 14 14 14 12 9 8 10 12 13 13 11 9 8 7 6 6
23 25 27 29 30 33 37 40 41 41 41 41 41 41 40 40 39 39 39 38 38 36 35 35 35 34 34 33 33 33 32 32 31 30 29 27 26 25 24 22 20 19 19 17 16 17 16 15 15 14 12 9 8 9 12 13 12 9 7 6 6 6 5
22 24 27 29 30 32 35 40 42 43 42 41 41 40 40 40 39 39 39 38 38 37 36 36 36 36 35 34 34 34 33 33 32 32 31 29 28 28 26 23 22 21 20 18 18 18 16 16 15 13 11 9 8 9 11 12 11 9 7 7 7 6 6
22 24 26 28 30 31 33 38 42 44 43 42 41 40 40 39 37 37 37 37 37 37 38 38 38 37 36 35 35 35 34 34 33 33 32 31 31 29 27 26 24 23 21 20 19 18 16 16 15 13 11 9 8 9 11 12 12 10 9 8 8 7 7
21 23 24 26 28 29 31 34 39 43 44 43 41 40 39 38 37 37 37 37 37 36 37 38 38 38 37 37 36 36 35 35 34 34 33 32 32 31 29 27 26 24 23 21 20 18 17 17 16 13 10 8 8 9 11 13 13 12 10 10 9 8 8
20 23 25 27 28 30 32 34 36 40 43 43 43 42 39 38 37 37 36 36 36 36 36 37 38 38 38 38 37 37 36 36 35 35 34 34 33 32 30 29 28 26 24 22 21 19 18 18 17 13 9 8 8 8 10 14 14 13 12 12 11 10 9
19 23 25 26 27 29 31 32 32 34 37 40 42 42 40 39 38 37 37 36 36 36 36 37 38 39 39 38 38 38 37 37 36 35 35 35 34 33 32 31 29 27 26 25 23 21 19 19 17 14 12 11 9 9 12 15 16 14 14 15 14 12 11
17 21 23 24 25 26 26 29 30 30 31 34 38 40 41 39 38 38 39 38 36 36 37 37 37 38 39 39 39 39 38 38 37 36 36 36 35 35 34 31 31 30 28 26 24 22 20 20 19 17 15 14 12 11 13 16 17 16 16 17 16 15 13
14 18 20 21 22 23 23 26 28 29 31 33 35 37 39 39 38 38 39 38 38 38 37 37 37 38 38 39 40 39 39 39 38 37 37 37 38 38 34 32 33 32 30 28 25 24 22 21 22 20 18 16 14 14 15 16 17 17 17 19 19 17 15
12 15 17 18 20 21 22 23 26 30 33 35 36 36 38 39 39 39 39 39 38 38 37 37 38 38 39 39 39 40 40 40 39 38 38 38 40 39 35 34 36 34 31 30 28 27 25 24 24 22 20 19 17 17 18 19 17 16 18 21 21 19 16
11 13 14 17 19 21 22 24 28 33 35 36 36 36 37 38 39 39 40 40 39 38 37 37 38 39 40 39 39 40 41 40 40 39 39 40 41 41 38 37 38 37 34 33 32 29 28 27 27 25 23 22 20 20 21 20 17 14 17 22 23 20 17
10 12 13 16 19 21 22 24 29 33 35 36 36 36 36 36 36 37 38 40 39 39 38 37 37 38 39 40 40 40 40 40 40 40 40 40 41 42 39 37 39 40 37 35 34 32 31 30 29 29 27 23 20 21 22 21 17 14 16 21 23 21 18
10 11 13 16 19 21 23 26 30 32 34 35 35 35 34 34 34 34 35 37 38 38 37 36 36 37 38 39 39 40 40 40 40 40 40 41 41 42 40 38 40 41 39 37 36 35 34 33 32 31 29 25 22 21 22 22 19 16 17 20 22 21 19
12 12 14 16 20 23 26 30 32 33 34 34 34 34 33 32 32 32 33 34 35 36 35 34 35 37 38 38 39 40 40 39 39 40 41 41 41 42 40 39 40 40 38 37 37 39 39 37 36 35 32 29 25 23 24 24 20 18 19 21 22 22 20
14 14 16 19 21 23 27 32 34 35 35 34 34 34 33 31 31 32 32 33 34 34 33 33 34 36 36 37 38 39 40 39 39 39 37 35 39 42 39 39 40 37 36 38 40 42 41 39 38 37 36 33 28 26 26 25 21 20 21 22 22 21 20
14 15 18 21 22 24 27 31 34 35 35 34 34 33 32 31 31 30 31 31 32 32 32 32 33 33 34 34 34 35 36 36 36 36 32 29 33 38 39 39 38 34 35 41 44 43 42 40 39 39 40 36 29 27 27 26 23 22 23 24 23 21 20
16 16 19 22 23 24 27 29 31 35 36 35 34 32 31 30 29 29 30 29 29 29 29 30 30 29 29 29 29 30 30 31 30 31 31 29 30 33 36 38 36 33 35 41 45 45 43 40 39 41 41 35 28 26 27 27 24 21 24 26 24 21 20
18 19 21 23 25 26 28 31 34 37 37 35 33 32 30 30 29 28 28 27 26 26 25 26 26 25 24 23 24 25 26 25 26 27 27 27 29 31 33 35 34 32 35 40 44 46 45 41 41 44 42 34 28 27 28 29 25 22 24 28 25 21 20
18 18 20 24 26 29 31 34 36 37 37 34 32 31 29 27 27 26 25 24 22 22 22 21 21 20 19 19 20 21 21 22 23 22 21 22 25 28 30 32 31 31 35 40 44 46 46 45 44 45 41 34 30 28 29 30 27 23 24 27 24 20 19
16 15 17 21 24 27 30 31 32 35 35 32 30 28 26 26 25 24 22 21 19 19 19 18 17 16 16 15 16 17 17 19 20 18 16 18 21 24 27 28 29 30 33 39 44 46 47 47 46 44 39 33 30 28 28 30 28 25 23 24 23 21 19
16 15 16 18 20 24 29 31 32 33 33 31 30 29 28 26 24 21 20 19 19 18 17 16 15 14 13 14 14 14 15 16 17 14 16 19 21 22 24 24 25 28 31 36 43 46 47 48 47 43 37 33 29 27 28 30 31 28 26 23 23 22 21
16 16 17 19 20 23 28 31 32 31 30 30 29 28 26 24 22 21 21 21 19 18 17 16 15 14 13 13 13 13 12 14 14 14 16 19 18 19 22 23 23 26 30 35 40 43 45 46 45 40 36 33 30 28 30 31 30 29 27 23 23 24 22
15 16 17 19 20 23 26 27 28 28 28 27 26 24 23 23 23 24 23 22 20 19 18 16 14 13 12 12 12 11 10 11 12 14 15 16 16 18 21 21 21 25 29 32 35 39 43 46 44 39 34 33 32 30 31 30 27 26 25 22 24 25 24
13 15 16 18 20 22 24 24 24 25 25 26 25 25 25 26 26 25 24 23 21 19 17 15 13 11 10 10 9 8 9 10 11 12 14 15 15 16 16 17 20 24 26 28 31 35 38 41 42 39 35 34 33 31 29 28 25 24 21 20 23 26 24
13 15 18 19 21 23 24 26 27 26 26 28 29 29 29 29 28 26 24 22 20 18 16 14 12 10 9 8 8 7 9 10 9 10 11 12 13 14 13 14 18 21 23 24 27 31 32 33 35 33 29 28 29 28 26 25 24 22 21 19 22 25 25
17 18 19 18 20 24 28 30 30 29 29 31 32 33 32 30 28 26 24 22 20 17 15 13 11 10 9 8 8 8 9 9 8 9 10 11 12 13 12 12 15 18 20 20 21 25 27 27 26 24 22 21 21 22 23 24 23 23 21 19 20 23 24
17 18 20 22 24 28 30 30 31 32 33 34 35 34 32 30 28 25 23 21 19 17 15 13 11 10 9 9 9 9 10 8 7 9 9 10 12 13 12 11 12 15 16 15 17 19 20 21 20 19 19 18 17 18 19 21 22 21 20 19 18 20 22
17 18 21 24 26 27 30 32 34 35 35 34 33 31 30 28 26 24 22 19 17 15 13 12 11 10 9 9 10 10 9 7 8 9 10 11 13 15 12 10 12 13 12 13 16 16 15 16 17 17 17 16 17 18 19 20 21 21 20 18 18 19 20
20 21 23 25 27 28 32 35 36 35 34 32 30 28 26 24 23 21 18 16 14 13 12 11 10 10 9 9 10 9 8 8 9 10 11 12 13 14 11 10 11 13 13 15 17 15 13 14 16 17 15 13 15 18 19 19 20 20 18 17 17 17 18
24 25 26 28 30 32 34 35 34 32 30 28 26 25 23 20 19 18 16 13 11 10 10 9 9 8 7 7 8 8 7 7 8 9 10 12 12 11 11 11 12 13 14 15 15 13 13 15 17 16 13 11 12 16 16 15 15 16 16 17 17 18 20
30 31 31 32 32 32 31 30 29 27 26 24 22 21 20 17 15 14 12 10 9 8 7 6 6 5 5 5 5 6 6 6 7 8 10 11 11 11 11 12 13 14 15 14 12 13 15 16 16 15 12 9 9 11 11 10 11 13 14 15 17 18 20
31 31 31 30 29 26 25 24 23 22 22 21 19 18 17 15 13 11 10 9 8 6 4 4 3 3 3 3 3 4 5 5 6 7 9 10 10 10 11 12 13 14 14 12 12 14 15 15 15 15 12 8 7 9 10 9 10 13 15 16 15 16 16
29 28 28 27 25 23 22 22 21 20 19 18 17 15 13 12 11 10 8 7 6 4 3 2 2 2 2 2 2 3 4 5 6 7 7 8 9 9 10 11 12 13 12 12 14 16 16 15 15 16 14 10 8 9 11 10 11 14 16 17 17 16 16
26 25 24 22 21 20 19 19 18 17 17 16 15 12 11 9 8 7 6 4 4 3 3 2 1 1 2 4 4 3 5 6 7 7 7 8 9 10 11 11 12 13 12 12 14 16 16 15 14 15 15 11 9 10 11 11 11 13 13 16 18 17 17
23 21 20 18 17 16 16 15 14 13 13 13 12 10 9 7 6 5 4 4 4 4 4 3 2 2 4 6 5 4 6 7 7 8 7 9 12 14 14 13 13 13 13 13 14 15 17 16 13 13 13 11 9 11 11 10 11 12 11 13 15 16 16
21 19 18 17 15 14 13 12 11 10 10 9 8 7 7 6 5 5 5 5 6 5 5 5 5 5 7 8 6 5 6 6 7 8 9 10 13 14 13 13 12 13 13 14 14 14 15 15 13 13 12 9 9 11 12 11 11 11 12 13 14 14 15
19 18 16 15 14 13 12 10 10 9 7 7 6 6 5 6 6 7 7 7 7 7 6 7 8 9 10 10 8 8 8 7 8 9 10 11 11 11 12 11 10 9 10 12 13 13 13 14 15 15 13 12 12 13 15 15 13 12 13 13 14 14 15
17 16 15 13 12 11 9 8 8 7 6 6 6 5 6 7 7 8 9 8 8 9 10 11 11 10 10 10 10 10 10 8 7 8 9 9 8 9 10 9 7 7 8 10 11 12 13 15 15 14 15 16 14 13 14 15 14 13 14 14 14 14 14

ECMWFFLT1_850_spd_027.txt.gz
Wind_Speed
23 20 25 30 32 34 35 37 37 37 37 38 38 38 37 37 36 34 34 35 37 38 37 37 37 36 35 33 32 31 30 29 28 27 26 24 22 22 22 21 21 19 17 16 16 15 14 13 14 14 13 12 12 12 11 12 12 11 11 11 10 10 9
23 25 29 33 34 34 35 36 37 38 38 38 39 38 38 37 38 37 35 36 38 38 37 38 38 38 37 35 34 32 31 30 29 28 28 25 24 23 23 23 22 21 19 18 16 16 15 15 15 16 16 14 13 13 13 13 13 14 13 12 12 12 11
21 26 30 33 34 34 35 36 37 39 39 38 38 39 39 39 41 41 38 38 39 39 37 38 38 38 38 36 35 34 32 31 31 30 29 28 26 24 24 24 24 22 21 20 18 17 17 18 17 18 18 16 15 14 14 14 15 16 16 14 13 13 11
20 25 29 31 32 32 34 36 38 39 38 38 39 40 41 42 42 43 41 40 40 39 38 38 38 37 38 37 36 35 34 32 31 31 30 29 28 26 25 25 24 23 22 21 19 18 18 19 19 19 19 18 16 15 14 15 17 17 18 16 14 12 11
18 20 24 27 30 31 32 35 37 38 38 38 38 40 41 42 43 42 42 42 40 38 37 37 38 37 37 37 37 36 35 33 32 31 31 30 29 29 28 28 26 24 23 22 21 20 20 20 20 20 20 18 17 16 14 15 18 18 19 18 15 12 11
16 16 21 25 29 31 33 35 36 38 39 39 39 40 41 42 42 41 41 42 41 38 37 36 37 38 38 38 38 37 36 35 33 32 31 31 30 30 31 30 29 27 26 25 24 24 23 22 21 22 21 19 18 18 16 15 17 19 19 18 16 14 12
18 19 23 26 27 30 32 34 36 37 38 37 37 39 40 40 40 40 39 41 41 39 38 37 37 38 39 39 39 38 38 36 35 33 32 32 32 32 32 31 30 29 29 28 27 27 26 24 24 24 23 20 20 19 18 16 16 18 19 18 17 16 13
19 20 23 24 25 27 28 31 33 34 35 35 36 38 39 39 38 38 38 39 39 39 39 38 38 38 39 39 40 40 39 38 36 34 33 33 33 33 33 32 32 32 31 31 30 30 29 27 27 27 25 23 23 21 20 18 17 18 20 19 19 18 15
17 18 20 21 22 23 25 28 30 31 33 35 37 38 39 38 37 37 37 37 37 38 39 37 37 38 39 39 40 40 39 38 38 36 35 35 34 34 33 33 35 35 33 33 33 33 31 29 29 29 27 26 25 23 22 20 18 19 21 20 20 18 16
10 13 17 19 19 21 23 25 28 30 33 35 36 36 37 38 38 37 36 36 35 37 38 36 34 35 37 39 39 39 39 39 39 38 37 36 35 35 34 35 37 37 35 34 35 34 33 32 32 31 28 28 28 26 24 22 20 20 21 21 21 19 17
9 12 16 19 18 20 22 24 27 30 32 36 36 35 36 37 38 38 37 36 35 34 35 35 33 32 34 37 38 38 39 39 39 39 38 37 36 35 35 36 37 37 36 36 35 35 35 34 35 34 32 30 30 28 26 25 23 21 22 23 22 20 18
14 14 16 19 19 20 23 24 27 30 32 35 35 34 35 36 36 37 39 39 35 32 33 34 33 31 32 34 35 37 38 38 38 39 39 38 37 34 35 37 37 35 36 37 37 37 38 38 38 37 35 32 31 29 29 28 25 22 23 24 23 20 19
15 16 16 19 20 21 23 24 27 29 30 32 33 32 34 36 35 36 39 40 36 31 31 33 33 32 31 31 32 34 36 37 37 37 37 38 37 35 35 38 37 35 36 38 38 39 40 41 41 39 38 35 33 31 31 31 28 24 24 24 23 20 19
18 18 19 20 22 22 24 24 26 28 29 31 31 31 32 34 35 36 38 41 37 32 30 31 31 32 31 29 29 31 34 35 35 35 35 36 36 36 37 40 37 35 36 38 38 39 42 43 43 42 40 38 35 33 33 32 30 26 25 25 23 21 19
20 18 19 21 22 23 24 25 27 30 31 31 31 31 31 33 35 36 37 39 37 32 29 29 30 31 30 30 30 31 33 31 27 27 27 27 29 31 33 38 39 35 36 40 40 39 41 43 44 44 42 39 36 35 35 34 31 27 26 26 24 22 20
19 16 16 18 20 22 24 26 28 30 31 32 32 33 34 35 37 37 36 35 35 32 29 28 30 31 31 31 31 32 32 27 20 19 21 22 24 25 25 30 36 35 33 35 38 40 39 40 41 41 40 39 38 37 37 36 33 27 25 26 25 22 21
20 19 17 15 17 20 21 24 28 30 32 34 35 35 37 37 38 37 34 33 35 34 31 30 31 33 33 33 32 31 29 25 19 18 21 22 22 25 23 22 26 29 27 27 32 37 38 37 37 36 35 38 40 39 37 36 34 27 25 27 25 23 22
19 20 20 18 18 20 22 25 27 30 34 37 37 37 38 38 38 37 34 33 35 33 31 31 33 34 33 32 32 30 26 23 20 18 20 21 21 25 26 22 21 26 29 30 31 33 36 38 37 33 33 36 39 39 36 36 33 27 25 28 25 22 22
21 22 22 19 18 20 25 27 28 31 35 37 37 39 39 38 39 38 35 34 35 33 31 31 32 33 32 30 30 28 22 20 19 17 18 21 23 25 24 21 23 27 30 31 29 28 32 37 37 36 35 37 38 38 36 35 32 26 25 28 25 21 21
28 28 25 19 19 23 27 28 27 29 34 35 36 37 35 33 34 35 35 34 35 33 32 32 31 30 30 28 27 24 20 18 18 17 17 19 23 24 21 19 22 24 23 22 23 25 27 29 33 38 39 39 38 37 35 34 32 27 25 28 28 23 19
30 31 28 23 23 26 27 27 27 28 32 32 31 33 33 31 32 33 35 35 35 34 33 31 30 29 27 25 23 21 19 18 18 18 17 18 20 21 19 18 19 20 16 15 20 24 23 24 31 37 39 39 39 37 36 36 33 29 27 30 31 25 21
32 33 30 26 25 27 27 27 27 29 31 31 31 32 33 31 30 31 34 35 34 33 32 30 29 27 25 23 21 20 20 20 20 19 17 16 18 18 18 18 18 19 17 16 19 22 22 27 34 36 36 38 38 37 37 36 34 30 27 30 30 24 21
34 35 30 26 25 27 28 26 25 27 29 30 31 31 30 29 28 30 34 35 33 31 30 29 28 26 25 23 22 22 22 21 21 20 18 17 18 17 16 16 16 16 18 18 19 20 21 26 31 33 35 38 38 38 36 33 31 29 28 29 28 24 23
30 29 26 24 23 24 26 25 25 28 30 31 31 31 31 30 29 32 34 34 32 31 30 29 27 26 26 25 23 22 21 20 20 20 18 17 18 16 14 14 14 15 17 17 15 15 16 20 25 28 31 33 35 36 34 30 29 29 29 29 28 24 23
28 26 22 21 22 24 25 25 26 29 30 32 33 34 34 33 31 33 34 34 32 31 30 28 27 27 27 24 21 20 20 19 19 19 17 15 15 14 13 14 16 16 16 14 12 13 14 15 17 19 21 25 29 31 32 31 29 30 31 30 28 23 19
25 24 21 20 21 22 24 26 28 30 31 33 35 35 35 34 32 33 34 34 32 29 28 28 27 26 26 23 20 20 19 18 18 18 16 14 13 13 13 14 15 14 13 12 11 11 12 13 12 13 17 23 24 25 28 27 27 30 31 27 23 19 17
17 18 18 18 20 23 24 26 27 28 28 30 33 35 35 34 32 32 34 32 28 25 25 26 27 26 24 21 19 19 18 17 17 17 14 13 13 13 13 14 15 14 14 13 11 10 10 11 11 12 15 18 19 21 23 21 21 24 24 21 20 19 18
14 14 15 19 22 24 25 25 25 25 26 27 29 31 31 31 32 33 32 28 25 24 25 26 26 24 21 20 18 17 16 15 15 14 13 13 14 13 14 15 15 15 15 12 10 10 11 10 10 10 12 14 16 19 19 17 18 19 19 19 20 20 19
15 16 17 21 22 22 23 25 26 26 25 25 26 27 27 30 33 34 32 29 27 26 26 25 24 21 19 18 16 14 14 13 12 12 11 12 14 15 16 16 16 15 14 11 10 11 10 10 11 11 13 15 16 17 16 16 18 20 19 20 20 18 18
15 16 18 20 20 21 23 26 27 26 25 25 26 26 27 32 36 36 33 31 29 27 25 23 21 19 17 15 14 13 14 12 10 10 11 14 16 16 17 16 15 14 13 12 12 12 11 11 12 13 15 16 17 18 17 16 18 20 20 20 20 19 18
16 16 18 19 21 24 25 27 28 27 26 27 28 29 30 33 34 34 32 29 26 24 22 20 18 17 15 14 14 15 14 11 9 9 11 15 16 16 16 14 13 13 13 12 12 12 11 11 12 13 15 17 17 16 13 13 16 17 18 19 19 19 19
18 20 22 23 25 27 28 30 31 31 31 31 31 32 32 31 30 29 28 26 23 21 19 16 16 15 14 13 13 14 13 10 10 10 11 13 14 14 14 12 12 12 12 12 13 12 11 12 12 13 15 16 15 12 9 10 13 15 16 16 15 16 20
21 22 23 25 27 29 31 32 32 33 33 32 31 30 30 27 25 24 23 21 19 16 15 15 16 15 13 12 12 11 11 11 11 11 11 10 11 12 12 11 11 13 13 12 12 12 12 13 13 14 15 14 12 10 8 8 10 12 14 15 15 16 19
24 25 25 25 26 29 32 32 31 31 31 30 28 27 26 23 20 19 18 18 16 15 16 16 15 13 12 12 12 12 13 13 12 11 11 11 12 13 13 12 12 12 12 12 12 13 14 15 15 14 14 13 12 10 7 7 8 9 10 13 15 16 16
25 26 26 26 26 28 29 30 30 30 29 26 24 23 22 20 18 17 16 16 16 15 16 16 14 13 14 13 12 13 13 13 12 11 12 13 16 17 17 16 15 14 13 14 15 16 16 16 16 16 15 13 12 10 8 8 9 10 11 12 12 12 11
24 25 26 26 26 27 27 26 26 26 25 24 23 22 21 20 18 17 16 16 16 15 15 15 15 17 17 16 14 13 11 11 11 11 12 13 17 18 18 17 17 17 16 15 15 17 18 17 16 15 14 12 11 10 10 10 10 13 16 14 11 10 11
23 23 23 24 24 24 24 22 21 22 22 21 21 21 21 20 19 18 17 16 15 15 15 15 16 17 16 15 15 13 12 11 11 11 11 12 14 17 17 16 17 17 17 16 15 16 17 16 16 15 14 12 11 10 11 12 12 12 14 14 13 13 13
22 22 21 21 21 21 21 20 19 18 18 18 17 18 18 18 16 15 15 14 13 14 16 16 16 14 13 14 14 13 13 13 12 11 10 10 12 14 15 15 16 16 17 17 16 16 16 16 16 16 15 14 12 10 11 14 14 13 13 14 14 15 15

ECMWFFLT1_850_spd_030.txt.gz
Wind_Speed
29 28 30 30 33 35 37 40 40 39 41 43 44 44 43 42 40 39 39 39 40 39 38 37 37 38 37 36 34 32 31 30 29 29 27 26 25 23 23 23 22 21 20 20 20 19 19 18 18 18 17 18 19 19 16 13 13 17 19 21 19 15 12
32 30 31 31 33 37 38 40 41 41 42 42 44 45 43 43 43 42 41 41 41 40 39 38 38 39 39 38 36 34 33 31 30 29 28 27 26 25 24 23 23 23 22 21 21 20 20 21 21 20 19 19 19 17 13 12 14 17 18 19 20 18 14
34 31 32 32 34 38 40 40 40 41 42 41 44 45 45 45 45 45 44 42 42 41 40 40 39 39 40 39 37 36 35 33 32 31 30 29 27 26 25 25 24 24 24 24 23 22 22 23 22 21 21 22 21 18 13 12 14 17 18 18 18 18 16
36 33 34 33 34 36 37 38 39 40 41 40 42 46 47 47 46 46 45 43 43 42 41 41 40 39 40 40 39 37 36 35 34 33 31 30 28 27 26 26 26 26 26 26 25 24 24 24 23 23 24 24 22 19 16 14 15 17 19 18 17 18 17
38 36 36 34 32 32 33 34 36 37 38 39 41 45 47 48 47 46 45 44 43 43 43 41 40 39 40 41 40 38 38 37 35 34 32 31 29 28 27 28 28 28 28 28 27 26 26 25 24 24 25 25 23 21 18 16 16 17 19 19 18 18 18
41 38 37 35 32 32 33 34 34 35 36 38 39 43 45 46 47 47 46 45 44 43 43 42 40 39 40 41 41 39 38 38 36 35 33 32 31 30 30 30 30 30 30 30 28 28 28 27 26 26 26 25 24 23 21 19 18 18 19 20 20 19 18
38 35 32 33 31 30 31 31 31 32 34 36 37 39 42 43 44 45 44 45 45 44 43 43 41 40 40 40 41 40 39 38 38 36 34 33 32 32 32 32 32 32 32 31 30 30 30 29 29 28 27 26 25 24 23 21 21 20 19 21 22 21 20
32 34 31 33 31 27 28 29 30 29 31 35 36 38 40 42 43 44 44 45 45 44 43 44 42 41 40 40 40 40 40 39 38 37 36 34 34 34 34 34 34 33 33 32 32 31 31 31 31 30 29 27 26 26 25 24 23 22 21 21 21 22 22
34 37 34 32 28 25 26 30 33 32 33 37 38 39 41 41 42 44 44 45 45 44 44 43 42 41 40 40 40 40 39 39 38 38 37 36 36 36 35 35 34 34 34 33 33 33 33 33 33 32 31 30 29 28 27 26 25 24 23 21 21 22 23
34 37 34 32 29 28 29 30 33 35 37 41 42 41 41 41 42 43 44 44 44 45 45 43 41 41 40 40 40 40 39 39 38 37 37 37 38 37 36 35 35 35 34 34 34 35 36 36 36 35 34 33 32 31 30 28 27 26 26 23 21 22 22
36 35 33 34 34 34 33 31 34 38 41 44 44 42 41 42 42 42 43 44 42 43 43 42 40 40 40 40 40 40 40 39 39 38 38 38 38 38 37 35 34 34 34 34 36 37 38 37 37 37 37 36 35 34 33 31 29 28 28 26 23 22 23
38 35 32 34 35 36 34 32 34 38 41 43 44 43 43 44 43 42 42 42 41 40 41 40 39 39 40 41 41 41 41 40 40 40 39 38 38 37 37 35 33 33 33 34 35 36 38 39 38 38 38 38 37 37 35 33 31 29 29 28 25 23 24
29 34 33 32 33 34 33 32 34 37 39 42 43 43 43 44 43 41 41 41 40 38 39 40 39 39 39 40 41 41 41 41 41 40 39 38 37 37 35 34 34 33 34 34 32 32 36 39 39 38 39 39 39 38 37 36 34 31 30 30 28 25 25
22 30 30 29 29 29 29 29 32 36 37 39 41 42 41 42 43 41 40 41 40 38 38 40 40 40 40 39 39 40 40 40 40 39 38 37 37 37 36 34 34 33 35 35 33 32 35 37 38 38 38 40 40 39 39 38 36 33 32 32 29 26 26
16 20 23 26 28 29 28 27 28 32 35 35 38 40 39 39 41 40 39 41 41 38 38 39 41 41 41 39 38 39 39 39 38 37 37 37 37 37 36 35 34 34 34 35 34 33 34 34 34 36 37 39 40 39 39 40 38 35 34 33 30 28 28
18 15 16 21 25 26 26 27 27 29 32 33 36 39 40 39 40 41 39 40 42 40 38 39 41 41 42 41 39 38 37 37 37 36 36 37 37 36 36 36 34 34 34 34 33 33 32 30 30 33 35 37 38 39 39 39 38 37 35 32 30 30 30
27 24 22 22 24 25 24 26 29 30 31 34 36 39 40 40 40 41 39 38 42 42 39 39 41 42 42 42 39 38 37 35 35 36 36 37 36 36 36 35 35 34 33 33 32 33 32 30 30 32 32 33 34 36 39 39 38 40 39 33 30 31 32
27 28 31 29 25 25 26 27 30 32 34 36 37 38 41 40 40 41 40 39 41 42 39 39 42 42 42 42 40 39 38 36 36 35 35 35 35 35 35 34 34 34 33 33 32 32 31 30 30 32 32 30 29 30 35 37 38 41 40 33 30 32 33
27 25 30 32 29 29 30 31 33 33 33 35 36 38 40 41 41 42 42 41 41 41 39 39 42 43 42 42 40 39 39 37 36 34 33 32 31 32 32 32 32 32 32 31 30 31 31 30 29 30 31 31 29 28 30 32 35 39 39 33 30 31 33
27 27 26 30 35 35 32 33 34 31 30 31 32 34 37 39 40 40 40 39 39 40 39 39 41 43 43 42 40 39 39 37 36 33 31 30 29 29 29 29 29 30 29 27 27 29 31 31 31 30 30 31 31 30 30 30 31 35 35 31 30 32 33
26 27 25 24 32 37 35 33 33 31 28 28 29 31 34 38 38 38 39 39 39 41 40 39 40 42 42 42 40 39 38 36 34 31 29 29 28 27 28 29 29 29 28 27 26 27 30 31 32 31 31 31 32 33 33 33 32 32 30 28 29 33 32
26 25 24 22 25 31 32 30 31 30 28 28 29 30 32 35 36 36 38 39 40 41 41 39 40 41 42 42 41 40 38 36 33 30 29 29 27 27 28 29 28 28 27 26 25 25 27 29 30 30 30 30 32 33 34 34 32 30 27 25 28 31 28
32 30 29 28 28 28 29 29 29 29 28 27 29 30 30 33 35 35 37 40 40 41 41 40 40 41 41 42 40 39 37 35 32 30 30 29 27 27 27 26 27 27 25 23 22 24 27 28 28 28 27 27 29 30 32 33 31 30 27 25 28 29 26
36 37 36 34 35 36 34 34 32 31 31 30 29 30 30 33 35 36 38 41 42 42 42 41 40 40 40 39 38 36 34 32 31 30 29 28 27 26 24 22 23 23 22 20 18 20 24 26 25 26 25 24 23 25 29 31 30 29 28 27 31 33 29
38 40 39 38 40 40 37 37 35 33 33 33 31 31 32 33 36 39 40 42 43 43 42 40 37 38 39 35 32 31 30 29 30 29 27 25 24 23 21 21 20 20 21 21 20 20 22 23 23 25 27 24 21 23 27 30 29 30 29 28 31 33 30
32 35 37 38 40 40 36 36 36 35 35 33 32 32 34 35 38 40 41 41 42 43 43 39 34 33 34 30 28 28 28 28 30 29 25 23 22 22 21 19 19 20 21 21 22 23 23 22 21 22 22 20 18 20 23 25 27 29 28 27 29 29 25
18 18 25 31 30 26 28 32 33 33 33 31 31 33 35 37 38 39 40 40 40 40 41 38 32 31 31 29 28 28 27 27 28 28 24 21 21 21 19 16 16 18 19 20 21 22 23 22 19 16 14 13 14 16 17 18 21 23 22 21 22 22 22
16 12 16 23 23 21 24 25 26 28 28 28 31 34 36 38 38 38 39 39 38 38 38 36 34 34 33 31 28 27 26 25 25 25 23 21 19 18 16 16 16 16 17 19 19 19 20 20 17 14 13 12 13 13 13 14 15 16 16 16 16 18 20
17 7 6 8 17 22 23 23 24 26 26 26 29 33 35 37 38 38 37 37 36 37 37 36 36 36 34 32 29 27 26 26 25 25 24 20 16 15 16 16 15 14 14 16 16 15 16 17 15 13 12 10 10 12 14 16 16 15 15 15 16 17 18
14 17 10 8 13 16 19 24 25 25 25 27 29 32 34 35 37 36 35 35 36 38 39 38 38 37 35 32 30 28 27 27 27 25 21 18 16 16 16 15 14 13 14 15 14 14 14 14 13 12 10 11 13 16 19 21 20 18 17 16 16 16 17
7 14 14 13 13 14 17 21 24 25 26 27 30 32 32 34 37 37 36 37 38 40 40 40 39 37 34 32 30 27 26 25 25 23 19 17 16 15 14 13 13 14 15 14 12 12 12 12 12 13 14 16 19 21 21 21 19 17 17 16 16 17 17
2 9 14 15 16 17 19 21 23 25 26 28 30 32 32 35 39 40 40 39 38 39 39 38 36 34 31 28 26 24 22 22 22 22 19 17 16 14 13 13 13 13 13 12 12 13 13 13 13 15 17 19 20 20 20 19 17 15 15 16 17 17 18
6 5 12 17 20 20 21 23 25 26 29 30 31 32 35 38 40 39 37 35 34 35 35 34 32 30 28 26 23 21 20 21 21 20 19 17 15 15 15 14 13 12 12 12 14 14 15 15 14 16 18 18 19 19 17 16 16 16 16 18 18 19 20
4 2 3 11 20 24 25 27 28 30 31 31 31 34 39 39 35 31 30 31 32 33 33 31 29 28 26 25 23 20 20 20 19 18 18 17 15 15 14 13 11 12 12 13 15 16 15 15 16 18 18 18 18 18 17 15 14 15 16 16 17 18 20
9 8 3 5 15 23 27 29 30 29 29 28 29 34 36 34 30 29 31 33 32 30 29 28 26 25 24 23 21 19 18 17 15 14 15 17 17 16 15 14 14 15 16 16 17 18 17 16 17 18 17 16 18 19 16 13 12 11 12 12 14 16 18
10 11 11 11 15 21 25 27 28 28 29 29 30 31 31 29 29 29 29 28 25 24 24 24 23 23 22 21 19 18 17 15 13 12 12 15 18 18 17 17 18 18 19 18 18 19 18 16 16 17 16 17 19 18 14 12 10 9 10 11 12 13 13
12 15 16 16 18 21 24 27 29 29 30 29 29 28 28 26 26 25 24 22 21 20 20 20 22 21 21 20 18 16 16 16 13 11 11 12 16 18 19 19 20 20 19 19 18 18 17 15 14 15 16 17 18 16 13 12 12 11 11 11 11 10 9
13 17 19 18 19 22 25 27 28 28 28 27 26 26 25 23 23 22 21 20 20 19 18 19 19 19 19 19 16 12 15 16 14 14 14 13 15 18 21 20 20 20 19 18 17 16 16 16 15 15 16 16 15 14 12 11 12 12 12 11 11 11 9

ECMWFFLT1_850_spd_033.txt.gz
Wind_Speed
40 39 39 41 43 44 46 49 49 48 49 50 50 50 50 49 47 47 46 46 46 45 44 44 43 43 42 41 40 37 35 33 33 32 31 31 31 30 28 27 27 27 26 25 23 22 21 20 20 18 17 18 18 18 16 13 13 14 14 14 13 11 10
41 40 39 40 43 45 46 49 49 49 50 50 51 50 50 50 49 49 48 47 47 45 45 44 44 44 43 42 40 39 36 34 33 33 32 32 32 31 30 28 28 27 26 24 23 21 21 21 21 20 19 19 18 18 17 14 14 16 17 16 15 13 13
40 40 40 41 43 45 46 48 49 50 50 50 50 50 50 51 51 50 49 47 47 46 45 45 45 44 43 42 42 40 38 35 34 34 33 33 33 32 31 30 29 28 26 25 24 22 22 22 23 22 21 20 19 18 18 15 15 17 18 17 16 16 15
38 40 42 43 43 44 44 47 49 50 50 50 50 50 50 50 50 50 49 48 47 46 46 46 46 45 44 43 43 42 40 37 36 35 34 34 33 32 32 31 30 29 28 26 25 23 23 23 24 23 23 22 20 20 19 16 16 19 18 18 18 18 17
39 40 42 43 44 44 44 46 49 49 50 49 49 49 49 49 50 49 48 48 47 47 47 46 46 46 45 44 44 43 42 39 37 37 35 34 34 33 33 33 32 31 30 28 26 25 25 26 26 26 25 24 23 22 22 19 19 19 18 18 20 20 19
39 41 42 44 46 47 47 48 49 49 50 49 48 48 48 48 49 49 49 48 47 46 46 46 46 46 46 45 44 44 43 41 39 38 37 36 35 35 34 33 33 32 31 30 29 28 27 28 28 28 27 27 26 25 24 23 22 21 19 18 19 21 21
41 43 45 47 47 48 49 49 49 49 49 48 48 47 47 48 49 49 49 48 47 46 46 46 47 47 46 46 45 45 44 43 41 40 38 37 36 36 35 34 34 33 32 31 31 30 30 30 30 30 29 28 28 27 26 25 24 22 21 20 20 21 21
46 47 48 49 50 50 48 47 47 47 47 47 47 47 47 48 49 50 50 49 48 47 47 47 48 48 47 46 45 45 45 44 43 41 40 39 38 37 36 35 34 34 33 33 33 33 32 32 32 32 31 30 30 29 27 26 25 24 23 23 22 22 22
47 50 53 52 50 49 46 46 46 44 45 46 47 48 48 49 50 50 50 49 49 48 48 48 48 48 47 47 46 45 45 45 44 43 42 41 40 39 37 36 35 35 35 34 34 35 34 34 33 33 33 32 32 31 30 29 27 26 25 25 25 24 24
42 46 50 47 43 42 43 43 43 42 43 45 47 48 48 49 50 51 51 50 49 49 48 47 47 47 47 48 47 46 45 45 45 44 43 42 41 40 39 37 36 36 36 36 36 36 36 35 35 34 34 34 34 33 33 32 31 29 27 27 26 26 26
43 44 44 42 39 41 41 41 42 45 46 48 49 48 48 49 50 50 51 51 49 48 48 47 47 47 48 48 47 47 47 46 46 45 44 43 42 41 40 39 37 37 37 37 38 37 37 37 36 36 36 36 36 36 35 35 34 32 30 29 28 28 28
44 44 40 41 40 41 41 42 44 47 48 49 50 49 48 48 48 48 49 49 48 47 47 47 47 47 48 48 48 48 48 47 47 46 45 44 43 42 41 40 39 39 38 38 39 39 39 38 38 38 38 38 38 37 37 37 36 35 33 30 29 29 30
42 44 40 42 42 41 43 45 47 48 48 49 49 49 48 47 47 47 47 47 47 46 46 47 47 47 48 48 48 49 49 48 48 47 45 44 43 42 42 41 41 40 40 39 39 40 40 39 40 40 40 39 39 39 38 38 38 37 35 31 30 30 31
39 43 41 43 45 45 46 47 47 47 48 47 47 47 46 46 46 46 46 46 46 45 46 46 47 47 48 48 49 49 49 48 47 46 45 44 43 42 42 42 42 41 40 40 39 40 40 40 39 39 39 40 39 39 39 39 39 39 37 33 32 32 32
33 39 41 43 44 44 44 43 43 44 46 47 46 45 45 44 45 45 45 45 45 45 46 46 46 47 48 49 49 50 49 48 47 46 46 45 44 43 42 42 43 42 41 41 40 39 39 39 39 39 39 39 39 39 39 40 40 40 38 35 34 34 33
26 32 37 40 42 42 42 42 40 38 40 42 44 44 44 44 45 46 46 46 46 46 46 46 46 47 49 50 50 50 48 48 48 47 46 45 44 43 42 42 42 42 42 41 40 38 38 38 38 39 39 39 39 39 39 40 41 41 38 36 35 35 34
24 27 31 35 38 38 39 40 38 35 35 36 38 40 43 45 46 46 46 46 46 47 47 47 47 48 49 50 50 49 48 48 48 48 47 46 44 43 42 42 42 41 40 40 39 38 37 37 37 38 38 38 37 37 38 39 40 39 37 35 36 37 37
28 28 30 33 38 40 40 41 40 36 35 34 34 36 39 43 46 46 47 47 48 48 47 47 48 49 50 50 50 49 49 47 48 48 48 46 45 43 42 42 41 41 39 39 39 37 37 37 37 37 36 35 35 35 35 37 39 38 35 32 34 37 39
32 35 37 39 42 45 46 46 44 40 36 36 36 36 38 42 46 48 48 49 49 48 48 48 49 49 50 50 50 50 49 47 47 48 48 47 45 44 43 42 41 41 40 39 39 38 37 37 36 36 35 35 34 33 33 35 36 35 31 29 29 33 37
24 30 37 43 45 46 47 46 44 40 37 36 36 36 38 42 45 46 48 49 49 49 49 49 50 50 51 51 51 51 50 48 47 47 46 46 45 44 43 43 41 41 41 40 38 38 37 36 35 34 34 34 34 32 32 33 33 31 28 25 25 30 34
17 17 23 36 44 45 45 44 42 39 38 37 36 36 40 43 45 45 47 49 49 49 50 50 51 51 52 52 51 51 51 49 48 46 45 44 44 44 44 42 41 41 40 39 38 36 35 34 32 32 33 34 34 33 33 33 31 28 26 24 24 27 31
11 11 14 26 38 41 42 43 41 38 38 37 37 39 42 43 44 46 48 48 49 50 50 51 52 52 52 53 52 52 52 50 48 46 44 43 43 43 43 42 41 40 39 38 36 35 33 32 30 30 31 32 33 33 32 31 29 28 27 27 25 26 28
14 15 17 17 23 32 40 43 41 39 39 38 39 41 43 43 45 47 48 48 49 50 49 51 53 53 53 53 54 53 52 51 49 47 45 43 43 42 41 40 39 38 37 37 36 35 34 33 31 30 30 31 33 33 32 31 29 27 28 28 26 25 26
24 26 28 26 21 22 33 38 36 36 38 38 40 42 43 44 45 47 48 49 49 50 50 51 53 53 53 53 54 53 51 50 49 47 45 43 42 40 39 39 38 37 36 36 36 35 34 33 32 31 31 31 32 32 31 30 28 28 28 28 27 25 26
22 27 32 35 31 25 28 32 30 30 35 41 43 44 45 45 46 47 48 48 50 51 51 52 53 53 53 53 53 52 51 49 48 47 45 42 40 38 38 38 37 35 34 33 33 32 32 32 32 31 30 30 30 30 29 29 28 27 28 27 27 25 25
21 24 24 25 27 26 26 32 33 31 36 45 48 47 47 47 47 48 48 48 50 52 53 54 55 53 51 51 52 51 50 48 47 46 44 41 38 37 37 36 35 34 33 32 31 31 31 30 29 28 27 27 28 28 28 27 26 25 25 25 25 25 24
17 17 16 15 16 17 17 22 32 38 41 46 50 48 48 49 50 51 50 49 50 52 52 54 54 51 49 49 50 50 48 47 46 45 42 40 38 37 36 35 34 34 33 32 32 32 31 28 25 24 23 22 22 23 24 24 24 25 25 24 24 24 24
16 14 16 20 21 19 18 20 28 38 44 47 50 50 48 50 52 53 52 51 51 50 50 52 52 49 48 49 49 48 47 46 45 43 41 39 38 37 36 34 33 32 32 32 32 31 28 26 25 23 22 20 20 21 22 23 23 23 23 22 22 22 22
14 14 14 17 20 19 17 20 25 34 42 48 51 52 52 53 54 54 52 50 49 48 48 49 49 47 47 48 47 46 45 44 42 41 39 39 38 37 35 33 31 30 30 30 29 28 27 27 26 26 24 20 17 18 18 19 20 20 20 20 20 21 21
12 11 9 11 12 12 11 12 15 21 31 41 46 47 48 50 50 50 49 47 46 45 45 45 46 45 46 46 45 44 42 41 40 39 39 39 37 35 33 31 29 29 28 27 27 26 26 25 25 25 22 15 12 13 14 16 18 17 16 16 18 18 19
11 10 9 10 10 9 11 10 7 8 15 27 38 39 39 44 46 46 45 44 43 43 43 43 44 44 44 44 43 42 40 39 39 39 38 37 35 32 31 30 28 27 27 25 25 25 24 23 23 22 16 11 12 14 14 15 16 15 14 14 13 14 15
10 9 9 9 8 7 10 12 10 5 12 15 27 34 36 40 43 44 43 42 42 43 43 43 44 44 43 43 42 41 40 39 39 38 37 35 32 30 29 28 26 26 24 22 21 21 21 21 21 18 13 12 14 15 14 14 15 15 14 13 13 14 15
10 10 8 6 6 7 7 7 8 2 6 3 13 23 30 32 34 37 39 40 41 43 43 44 46 45 45 43 42 41 41 41 40 39 36 33 30 28 26 24 23 22 20 18 16 16 16 18 17 15 14 14 14 13 13 13 13 14 14 14 15 17 19
10 8 5 4 5 5 5 8 8 5 4 6 11 18 28 30 27 28 34 38 42 46 46 47 48 47 45 44 43 42 42 41 40 38 35 32 29 27 24 21 19 17 16 14 14 14 15 16 15 14 14 15 15 14 14 15 15 15 16 16 17 19 21
11 7 4 3 2 1 4 10 14 14 16 20 20 21 27 32 31 30 31 35 41 47 49 49 48 47 46 45 43 43 42 41 39 37 34 32 29 26 24 20 16 15 15 14 14 15 14 14 13 13 13 13 14 14 15 16 16 15 15 15 16 17 19
13 7 5 5 6 6 4 4 12 17 19 22 23 21 24 30 33 33 33 34 38 43 46 46 45 45 45 44 42 41 40 39 37 34 32 29 26 25 23 20 17 16 16 16 16 16 15 15 14 14 13 13 14 14 13 14 13 13 13 15 16 17 18
20 13 7 6 7 9 10 7 6 10 12 16 19 19 21 24 26 28 30 29 29 32 37 39 40 41 42 41 41 40 38 35 33 30 27 25 23 23 22 21 21 20 18 17 17 17 17 16 15 15 15 14 13 13 13 13 13 12 14 15 15 16 17
27 21 16 13 12 11 8 4 4 7 10 15 18 18 18 19 20 21 22 21 21 26 33 37 39 40 39 37 36 34 31 29 27 25 24 23 22 22 22 21 22 22 20 18 17 17 16 16 16 15 13 12 11 12 14 15 14 13 13 13 12 12 13

ECMWFFLT1_850_spd_036.txt.gz
Wind_Speed
43 45 49 50 52 53 54 56 56 57 57 57 58 58 57 57 56 56 56 56 55 54 53 52 50 48 46 45 44 44 43 41 41 40 39 38 37 35 34 33 33 31 30 29 29 28 26 23 23 22 21 21 20 19 17 16 15 14 13 13 14 14 15
41 44 48 50 51 53 54 56 57 57 58 58 58 58 58 58 58 58 57 56 56 54 53 52 51 49 47 45 44 44 43 42 41 41 40 39 38 37 35 34 34 32 31 30 29 29 27 25 23 22 22 22 21 20 19 18 17 16 15 14 15 15 16
41 44 48 51 52 54 55 56 57 57 58 58 58 58 59 59 59 59 58 57 56 54 53 52 51 49 47 45 44 44 44 43 42 42 42 41 39 37 36 35 35 33 31 30 30 30 28 26 25 23 22 24 23 21 20 19 18 18 16 15 16 16 17
43 45 48 50 53 54 56 57 57 57 57 58 58 59 60 60 59 59 57 56 56 55 54 53 51 49 47 45 44 44 44 43 43 43 42 41 40 37 36 36 36 34 33 32 31 30 29 28 27 25 24 25 24 22 22 21 20 19 18 17 17 18 18
43 44 45 48 51 53 55 57 58 57 57 57 58 59 59 59 58 58 57 56 55 55 53 52 50 49 47 45 44 43 43 43 43 43 42 41 40 39 37 37 36 36 35 33 32 31 30 30 29 27 27 27 26 24 23 22 21 20 19 19 19 19 19
42 41 42 46 50 53 55 57 58 58 57 57 58 58 58 57 57 57 57 56 55 54 52 51 50 49 48 46 45 44 43 43 43 43 43 41 41 40 39 37 36 36 36 34 33 32 32 31 31 30 29 29 28 26 25 24 24 23 21 20 21 21 21
42 42 43 47 51 54 56 57 57 57 57 56 56 56 56 56 57 57 57 56 55 54 53 52 51 49 48 47 45 44 43 43 43 43 43 42 42 41 40 38 37 37 37 36 35 34 33 33 32 31 31 30 30 29 28 27 26 25 24 23 23 23 23
46 45 46 48 50 54 55 55 55 55 55 54 54 54 55 56 56 56 56 56 55 54 53 52 51 49 48 47 46 45 43 42 42 42 43 43 43 42 41 40 39 38 38 38 37 35 35 34 34 33 32 32 32 31 30 29 27 27 26 26 26 25 25
46 47 49 51 52 54 55 54 55 55 54 53 53 54 54 55 55 56 57 56 55 54 54 53 51 49 48 47 46 45 42 42 42 42 43 44 44 44 43 41 40 39 39 39 38 37 36 36 35 34 33 33 34 33 32 31 30 29 28 28 28 28 27
45 47 50 52 53 55 55 54 52 52 53 53 53 53 53 54 55 56 56 56 56 55 54 53 51 50 48 47 46 45 43 42 42 42 43 44 45 45 44 43 41 40 40 40 39 39 38 37 36 35 35 35 35 35 34 33 32 31 30 29 29 29 29
45 48 50 52 53 53 51 47 46 48 51 53 54 53 53 54 54 55 55 56 56 55 53 52 51 51 50 48 47 46 44 43 42 43 44 44 46 46 46 45 43 42 41 41 41 40 39 38 38 37 37 37 37 37 36 36 34 33 32 30 29 29 30
43 46 49 51 51 49 46 44 46 49 51 53 54 53 53 54 54 55 55 55 55 54 53 52 52 51 51 50 48 47 46 44 43 43 44 44 45 47 47 47 45 43 42 42 42 41 40 39 39 39 39 39 38 38 38 37 36 35 34 33 31 30 31
42 47 51 50 48 45 43 44 47 50 51 52 53 53 53 54 54 55 55 55 54 53 53 52 52 52 51 50 50 49 47 45 44 42 43 44 45 46 48 48 47 46 44 43 42 42 41 40 40 40 40 39 39 38 38 38 38 37 36 35 33 32 31
35 39 43 44 44 43 43 44 46 48 50 52 52 52 53 53 53 54 54 54 53 52 52 52 52 52 52 51 50 50 49 46 44 42 42 43 44 46 48 49 49 48 46 45 44 43 42 41 41 40 40 40 39 39 39 39 40 39 38 37 35 33 32
38 38 38 39 41 43 44 46 47 48 50 51 50 50 51 51 52 52 53 53 52 53 53 53 53 53 52 52 51 51 49 47 45 43 42 43 45 47 48 49 50 49 48 47 46 45 43 42 41 41 41 40 40 40 40 40 41 40 39 38 35 33 33
36 36 37 41 44 46 48 49 48 49 49 49 48 49 49 50 51 51 52 53 53 53 53 53 54 53 53 53 52 51 50 48 46 45 44 45 46 47 48 49 49 50 49 48 47 46 44 43 42 42 42 41 41 41 41 41 41 41 40 37 34 32 32
29 34 37 42 45 47 49 49 48 48 48 48 48 48 48 49 49 50 51 52 53 53 54 54 54 55 54 54 53 52 50 49 48 47 47 47 47 47 48 48 49 50 49 48 47 46 45 44 44 43 42 42 42 41 41 41 41 41 39 36 32 30 30
30 34 37 40 42 43 44 46 46 46 47 48 47 46 47 48 48 49 50 52 53 54 54 55 55 55 55 54 53 52 51 50 49 48 48 48 48 48 48 48 49 50 50 49 48 46 46 45 44 43 42 42 41 41 41 40 40 40 38 33 28 29 30
27 30 32 34 37 38 40 43 45 47 47 47 45 42 44 46 49 51 52 53 55 55 55 55 56 55 55 54 53 52 51 51 50 49 49 49 48 48 48 49 50 51 50 49 47 46 46 45 44 43 43 42 41 41 40 40 39 39 36 31 27 28 30
24 25 28 32 34 36 39 41 44 46 46 44 42 40 41 45 48 49 51 53 54 55 55 56 56 56 55 55 54 52 51 51 51 50 49 49 48 48 49 50 51 50 49 48 47 47 47 45 44 43 42 41 41 40 39 39 38 37 34 29 27 27 28
25 25 28 32 33 35 37 39 44 47 47 45 45 43 43 46 47 49 51 53 54 55 56 56 56 56 56 56 55 53 51 51 51 50 49 49 49 49 49 50 50 50 49 48 48 47 46 45 44 43 42 41 40 39 38 38 37 36 32 28 25 25 25
23 26 29 33 36 39 40 42 47 49 48 48 49 48 47 47 48 50 53 54 54 55 56 56 57 57 56 57 56 54 52 51 50 50 49 49 49 49 49 50 50 49 49 48 47 47 46 45 44 42 41 40 39 38 38 37 36 34 30 27 24 24 25
7 15 21 26 32 37 41 45 48 50 49 50 50 50 48 48 49 52 53 54 54 55 55 56 57 57 57 57 57 56 53 50 50 50 50 49 49 49 49 49 49 49 48 48 47 46 45 44 43 42 41 39 38 38 38 37 35 33 29 26 24 24 25
7 2 5 11 20 27 31 38 43 45 47 48 49 48 48 49 51 53 53 54 54 54 55 56 56 56 57 58 58 56 54 52 50 50 50 50 49 48 48 47 47 48 48 48 47 45 44 43 42 41 40 38 38 37 37 36 34 32 29 26 25 24 24
11 9 7 4 6 12 18 26 32 35 39 44 47 48 48 47 48 50 52 52 53 54 55 56 56 55 56 57 57 57 55 52 51 51 50 50 49 48 47 46 46 47 47 47 46 44 43 42 41 40 39 38 37 36 35 35 33 31 29 27 26 25 23
10 8 7 7 5 1 4 12 21 30 37 43 46 48 49 47 45 46 49 51 52 53 55 55 54 53 53 55 56 55 54 53 52 51 51 50 49 48 47 46 46 46 46 45 44 42 41 41 40 39 39 38 37 35 34 33 31 29 28 26 26 24 23
9 7 6 5 3 3 2 2 9 18 29 38 44 47 49 49 48 47 48 50 52 53 54 54 53 52 53 55 55 55 54 54 54 53 52 51 50 48 47 46 45 45 45 44 42 41 40 40 39 39 38 37 36 34 32 30 28 26 25 24 22 21 22
7 5 3 2 2 5 6 5 5 8 14 25 36 42 41 42 46 49 50 52 52 52 52 53 53 53 54 54 55 55 55 55 55 55 53 52 51 49 47 46 45 44 43 41 40 40 40 39 39 38 37 35 33 31 29 28 26 24 23 22 21 21 22
10 8 6 5 5 5 6 9 11 11 11 13 22 31 35 35 38 42 46 50 52 52 52 53 54 54 55 55 55 55 55 55 56 55 54 53 52 50 48 46 45 43 41 40 40 40 40 39 38 37 35 33 31 29 28 27 25 23 21 21 21 22 21
9 10 10 10 10 10 9 10 11 13 14 13 15 21 28 32 35 39 41 44 48 49 50 54 56 55 55 55 54 53 54 54 54 55 54 54 52 50 49 47 45 43 41 40 41 40 39 38 37 35 33 31 29 28 26 24 22 21 22 22 21 20 19
9 10 10 10 10 11 12 11 11 11 13 14 16 18 22 27 32 36 39 43 46 46 45 48 54 56 55 54 53 52 52 52 52 53 54 54 53 51 49 47 45 43 42 41 40 39 38 37 35 34 32 29 27 26 24 22 22 22 23 23 21 21 20
9 10 10 10 9 9 9 9 8 8 9 11 14 17 20 23 26 31 34 37 42 44 41 40 44 49 51 52 52 52 52 52 52 53 53 53 52 51 49 47 45 43 42 40 38 36 36 35 33 32 30 27 26 25 23 22 23 22 21 21 22 23 23
8 9 9 10 11 10 8 8 7 7 8 10 13 16 19 22 26 30 32 33 36 38 36 34 36 41 46 49 51 52 54 54 54 54 54 53 52 50 47 45 44 43 41 39 37 35 34 33 33 31 29 27 26 25 24 23 22 20 19 21 22 22 22
8 8 7 8 9 9 9 9 8 8 9 10 12 15 18 21 24 28 33 36 37 35 33 32 32 34 40 47 51 52 54 56 56 55 55 53 51 49 46 44 42 41 38 36 35 35 34 33 31 29 27 26 25 25 24 23 21 20 21 21 20 20 20
8 8 8 7 7 8 9 9 9 9 9 9 11 13 16 17 21 25 30 34 36 33 32 32 33 31 31 36 44 49 51 53 56 57 56 54 51 47 44 42 38 35 32 31 30 29 27 26 26 25 24 23 23 23 23 21 19 20 21 20 18 18 18
9 8 8 8 8 8 9 9 8 8 9 9 9 12 14 17 21 24 27 30 32 33 32 34 37 36 28 22 30 43 48 50 53 54 53 52 50 46 42 37 32 28 27 26 25 23 20 19 20 20 21 22 21 20 17 15 15 17 19 18 17 16 15
14 12 11 9 7 6 6 6 7 8 7 7 7 8 11 15 19 22 25 27 29 32 34 37 41 43 36 25 26 38 44 43 43 45 46 46 45 41 38 35 30 26 23 23 22 21 19 17 17 17 18 18 17 16 14 13 13 15 16 15 15 15 15
20 19 17 14 12 9 6 4 3 3 3 5 8 5 3 6 9 14 20 23 25 29 35 38 39 42 41 35 30 30 31 32 35 40 42 41 38 36 35 34 32 29 25 23 22 22 21 21 19 18 16 14 13 12 12 13 14 15 14 14 15 16 16

ECMWFFLT1_850_spd_042.txt.gz
Wind_Speed
39 42 46 47 48 49 51 53 54 54 54 54 55 54 53 53 53 53 52 52 53 51 50 50 49 49 48 47 45 43 41 39 37 36 37 38 37 36 34 33 33 33 33 33 31 30 28 27 26 26 26 26 25 24 22 19 19 19 18 18 17 16 15
34 40 44 46 48 50 52 53 54 54 55 55 56 55 54 55 54 54 54 53 53 52 51 51 50 50 49 48 46 45 43 41 39 38 37 37 36 35 34 33 32 32 32 32 31 30 29 28 27 26 26 27 26 24 22 20 20 20 20 19 18 17 16
35 39 43 47 50 53 54 54 54 54 55 55 55 55 56 56 56 56 55 54 54 53 53 52 52 51 50 49 48 47 45 44 42 40 39 37 35 34 33 33 32 32 31 31 32 31 30 29 28 27 27 27 27 25 22 20 20 21 21 21 20 18 17
35 39 44 48 51 53 53 53 54 55 56 56 56 57 57 57 57 56 56 55 54 54 53 53 52 52 51 50 49 48 47 46 44 42 40 38 36 34 33 34 33 32 32 32 32 32 31 29 29 28 28 28 27 25 23 21 21 22 22 22 22 20 19
35 38 41 44 48 50 50 52 55 56 57 57 57 57 57 57 57 56 56 56 56 55 53 52 52 51 51 50 50 49 48 47 45 44 42 40 38 36 35 34 33 32 33 32 32 32 31 30 29 29 28 28 28 26 24 22 22 23 23 24 24 22 21
35 37 39 43 48 50 51 53 56 58 58 58 57 57 57 56 55 56 56 56 56 56 54 53 53 52 52 51 50 50 49 48 47 45 44 42 40 39 37 35 33 33 32 32 33 33 32 31 30 29 29 29 28 27 26 24 23 24 25 25 25 24 23
38 39 42 44 47 50 53 55 55 57 59 58 57 56 56 54 54 55 55 55 56 56 55 55 55 54 53 52 51 51 50 50 48 47 45 44 42 41 39 37 35 33 32 32 33 34 33 32 31 30 30 30 30 29 28 26 24 25 26 26 26 26 25
39 39 41 43 46 49 51 53 54 55 56 57 55 54 53 53 53 53 54 55 55 55 55 56 56 55 54 53 52 52 51 50 49 48 47 45 44 43 41 39 36 34 33 33 33 34 34 33 32 32 32 31 31 30 29 28 26 26 27 28 28 27 27
38 38 41 42 43 45 46 50 53 52 53 54 54 54 53 52 52 53 54 55 55 55 56 56 56 55 54 54 53 52 51 50 49 48 48 47 46 45 43 40 38 36 35 34 33 34 35 35 34 33 33 33 32 31 31 30 28 28 28 28 29 29 28
37 38 40 38 37 39 40 44 47 47 49 52 54 54 53 52 53 54 54 54 54 55 56 56 56 55 55 54 54 52 52 51 50 49 49 48 47 46 44 41 39 37 36 35 34 34 35 35 35 35 35 35 34 33 33 32 30 30 30 29 30 30 29
33 34 36 35 36 37 38 40 44 46 48 50 53 54 53 54 54 54 55 55 55 56 56 55 55 55 55 55 54 53 53 52 51 51 50 49 47 46 44 42 40 38 37 36 35 35 36 36 37 36 36 36 35 35 34 34 32 32 31 30 30 30 30
26 28 31 34 37 39 39 40 44 47 49 50 51 53 53 54 55 55 55 55 56 56 55 55 55 55 55 55 54 53 53 52 52 51 50 49 47 46 44 43 41 40 38 37 36 36 37 37 38 38 38 37 36 35 35 35 34 34 32 31 30 30 30
23 24 26 30 34 37 39 39 43 47 49 50 51 52 53 54 55 55 55 56 56 55 54 54 54 55 55 54 54 54 54 53 53 52 51 49 47 45 44 43 42 41 39 37 37 37 38 39 39 39 38 38 37 36 36 35 36 35 33 32 31 31 30
24 24 24 27 31 34 37 39 43 46 48 50 50 51 52 54 55 55 56 56 55 54 54 54 54 54 54 54 54 54 54 53 53 51 50 48 46 45 44 43 43 41 39 38 38 38 39 39 40 39 39 39 38 37 37 36 37 36 35 33 32 31 30
23 24 24 27 29 32 35 38 42 45 48 49 49 50 51 52 53 54 54 55 54 54 53 53 53 54 54 55 55 55 54 53 53 52 50 49 47 45 44 44 42 41 40 39 39 39 39 40 40 40 40 40 39 39 38 38 38 37 35 33 32 31 30
21 21 21 23 27 29 32 36 40 43 46 48 48 49 51 51 52 54 54 54 54 54 53 53 53 53 54 55 55 54 53 53 53 52 51 50 48 46 45 44 43 41 40 40 40 40 40 40 40 41 42 41 40 40 40 40 39 37 35 33 32 31 30
19 19 20 22 25 27 30 33 37 41 44 46 48 49 50 51 52 53 53 53 53 54 53 53 53 53 54 55 54 53 53 53 53 53 52 51 49 47 46 45 43 42 41 41 41 41 41 41 42 42 43 43 42 41 41 41 39 36 34 33 32 31 29
20 20 21 22 24 25 27 31 36 40 42 45 47 48 49 49 50 51 52 52 53 53 52 52 53 54 54 54 53 53 53 53 53 53 52 51 49 48 46 46 44 43 42 42 42 42 43 43 43 43 44 44 43 43 43 42 39 36 34 33 32 30 29
22 23 22 23 24 25 25 28 33 38 41 43 45 46 46 47 48 49 50 51 52 51 51 52 52 53 54 54 53 53 53 53 53 53 53 52 50 49 48 47 46 45 44 44 43 43 44 44 44 44 45 45 45 45 44 43 40 37 35 34 31 30 29
22 24 24 24 25 26 25 25 29 34 38 41 42 43 44 46 47 46 47 48 49 50 51 52 52 53 54 53 53 53 52 52 53 53 53 52 51 50 50 49 48 47 45 44 44 45 46 46 45 45 45 46 45 45 45 43 40 38 37 34 32 30 29
18 20 22 21 21 22 22 21 25 30 34 37 39 40 42 44 44 45 46 47 48 49 50 50 52 52 53 53 52 52 52 52 53 53 53 52 51 51 51 51 50 49 47 47 47 47 46 46 46 46 46 46 45 46 46 44 41 39 37 35 33 31 29
11 13 15 15 15 16 16 17 21 25 29 32 35 37 39 41 42 44 45 46 46 47 47 48 50 51 51 51 52 52 52 52 52 52 52 51 51 51 51 51 51 50 49 48 48 48 48 47 47 47 47 46 46 46 46 44 42 40 38 35 34 32 30
3 4 6 8 9 10 11 13 17 21 24 28 30 32 35 37 39 40 41 43 44 44 45 47 48 48 49 50 51 51 51 51 51 51 51 51 51 51 51 51 51 50 49 49 49 50 50 50 49 48 48 47 47 47 46 44 42 40 38 36 36 34 31
6 5 3 1 3 5 6 9 12 16 20 24 26 28 30 32 35 36 38 41 42 42 43 46 47 46 47 49 50 50 50 50 50 51 51 51 51 51 50 50 50 50 49 49 49 50 50 50 49 49 49 49 48 47 46 44 42 40 38 37 37 35 31
12 12 11 9 7 5 2 1 5 9 13 16 19 21 22 25 28 31 34 37 39 40 43 45 45 45 45 46 47 48 48 48 49 49 50 51 51 50 49 49 49 49 48 48 49 49 49 49 50 51 51 50 50 48 47 45 42 40 39 39 38 34 30
15 16 15 14 14 12 10 7 4 4 7 9 10 11 12 15 18 23 28 32 36 39 42 43 43 43 43 44 44 46 47 47 48 49 49 49 48 48 48 49 49 49 48 47 48 48 48 49 50 51 52 52 51 50 48 46 44 42 41 40 37 33 29
13 15 16 16 16 16 16 14 12 9 6 4 3 5 7 9 12 16 21 27 33 36 38 40 41 41 41 42 43 44 45 47 48 49 48 46 46 47 47 48 49 49 49 48 47 47 48 48 50 51 52 52 51 50 50 48 45 44 42 40 37 32 29
12 12 13 14 14 14 14 14 14 14 12 10 7 3 3 6 9 11 16 22 26 28 31 34 37 38 39 40 42 43 45 46 48 49 49 47 48 48 48 47 48 49 50 50 49 48 47 48 49 50 51 51 51 51 50 48 47 46 43 40 36 32 29
11 10 10 11 12 13 13 12 12 12 12 11 9 7 4 2 4 8 13 18 21 23 27 30 32 34 36 38 40 42 44 45 46 48 49 48 49 50 49 48 49 50 52 53 53 51 49 49 49 50 50 50 50 50 49 48 48 47 44 39 34 30 28
10 9 8 8 9 10 11 10 10 10 9 9 8 7 6 4 1 4 8 13 16 20 23 26 28 31 33 36 38 40 42 43 45 46 47 47 48 50 50 50 50 51 53 55 55 55 53 52 51 50 50 50 50 50 49 48 48 46 42 37 32 29 26
9 8 7 6 6 6 6 7 8 7 7 6 6 5 5 5 3 1 4 8 11 14 16 19 23 27 30 32 35 37 39 41 44 45 46 46 48 49 51 53 53 53 54 55 56 56 56 54 52 51 51 51 52 50 48 48 48 45 41 36 32 28 26
8 7 6 4 3 3 4 3 3 3 3 3 2 1 2 4 4 4 4 5 7 9 11 13 16 20 24 27 30 33 36 39 42 44 46 47 49 50 52 54 54 55 55 54 54 54 54 54 53 52 52 52 52 51 50 48 47 44 40 36 32 30 29
9 8 6 4 2 0 1 2 3 3 3 4 4 4 5 6 7 7 8 8 9 10 11 12 13 16 19 22 25 28 32 36 40 42 45 47 49 51 52 53 53 54 55 54 54 55 56 56 56 55 55 54 53 53 52 50 47 43 40 37 34 32 31
11 9 8 6 4 2 0 1 2 4 5 7 8 9 9 9 10 10 11 12 14 14 15 15 15 16 17 19 22 24 28 33 38 41 44 47 49 51 53 53 54 55 57 58 59 60 59 58 57 57 56 55 54 53 52 51 48 45 41 38 37 36 34
14 13 11 9 7 6 4 3 2 1 3 5 7 9 10 11 12 13 14 15 17 17 18 18 18 17 17 16 18 20 23 28 32 37 41 45 48 50 52 54 55 57 59 61 62 63 62 60 59 59 58 56 54 54 53 51 48 45 41 38 37 37 35
20 19 16 13 11 9 8 8 7 5 4 4 4 5 6 8 11 12 14 16 18 19 20 20 21 21 20 19 18 18 20 23 27 31 36 40 45 48 51 53 54 57 60 62 62 64 64 62 60 59 58 57 56 53 50 48 44 41 39 38 37 35 33
23 22 20 18 16 15 14 13 11 10 9 8 8 7 5 5 5 6 8 9 11 12 14 16 18 20 21 21 20 19 19 20 23 26 30 34 39 43 47 52 55 57 60 62 64 65 66 65 63 62 60 58 55 52 48 42 37 37 38 39 38 35 31
24 24 23 22 21 19 18 17 16 16 15 14 12 11 10 9 8 8 7 6 6 6 7 7 9 11 13 16 17 18 19 20 23 25 28 31 33 35 38 44 52 59 62 64 66 67 67 66 64 62 62 60 54 48 44 38 34 37 41 40 37 34 29

ECMWFFLT1_850_spd_045.txt.gz
Wind_Speed
33 34 37 39 43 49 53 54 53 51 50 49 48 48 49 49 50 51 51 50 50 50 50 49 47 46 45 43 41 40 38 37 36 35 34 34 34 34 34 34 33 33 31 30 28 27 26 24 23 23 23 22 22 22 22 21 20 18 17 16 15 16 16
29 33 36 37 41 49 54 55 54 53 51 50 49 49 49 51 52 52 51 51 51 50 50 49 49 48 46 44 42 41 40 39 38 37 36 35 33 32 33 33 34 34 32 31 30 29 28 26 25 25 24 24 23 23 23 22 21 20 18 17 16 17 17
28 32 35 37 42 50 55 55 55 54 53 52 51 50 51 51 51 52 52 51 51 50 50 50 50 49 47 45 44 42 40 40 39 38 37 36 34 33 32 32 32 32 32 32 31 30 29 28 27 26 26 25 25 25 24 23 23 21 20 18 18 18 18
30 33 35 40 46 50 53 54 55 55 55 54 53 52 52 51 50 51 52 52 51 51 51 50 50 49 48 46 45 43 42 41 40 39 38 37 35 34 33 32 30 30 31 31 31 30 30 29 27 27 27 26 26 26 25 24 24 23 21 20 19 19 19
31 33 32 38 45 48 50 53 55 56 56 56 56 54 53 51 50 51 51 52 52 51 50 49 49 49 49 48 46 45 44 42 41 40 39 38 37 36 35 33 31 30 29 29 30 30 29 29 28 28 28 27 27 27 26 25 25 24 22 21 20 20 20
28 31 34 39 43 45 49 52 54 56 57 57 57 56 54 53 53 52 52 52 52 51 50 50 50 49 49 48 47 46 45 44 43 42 41 40 39 38 37 35 33 31 29 29 30 30 30 29 29 29 29 28 28 29 27 26 26 25 24 23 22 21 21
30 32 36 39 41 44 48 50 52 54 55 56 57 56 55 54 54 54 53 53 53 52 52 51 50 49 47 46 46 47 46 45 44 43 43 42 41 40 39 37 35 33 30 30 29 30 30 31 30 30 30 30 30 30 28 27 27 26 25 24 23 22 22
30 29 34 37 39 42 44 47 50 51 52 54 55 56 55 54 55 55 55 55 54 54 53 52 51 49 47 46 46 45 45 44 44 43 43 43 43 42 41 39 37 34 33 32 31 30 30 31 32 32 31 31 32 31 29 29 28 27 27 26 25 23 23
25 25 28 31 34 36 38 43 46 47 49 52 53 54 54 54 55 56 57 56 55 55 55 53 53 51 49 48 47 45 44 44 44 43 43 43 43 43 42 41 38 36 35 34 33 32 31 31 32 33 33 33 33 33 31 30 29 29 29 28 26 25 25
26 26 25 24 27 31 34 38 40 42 45 48 50 52 53 55 56 57 57 56 56 56 55 54 54 53 51 50 48 47 46 46 45 44 44 44 44 43 42 41 39 38 37 35 35 34 33 32 32 33 34 35 35 35 33 32 31 31 30 29 28 27 26
22 23 23 23 25 28 30 33 36 40 43 45 48 50 53 54 56 56 56 56 56 56 55 54 54 54 53 51 50 50 49 48 47 46 46 46 45 44 43 42 41 39 38 37 37 36 34 33 33 34 36 37 37 36 35 34 33 33 32 31 30 29 28
16 16 19 22 23 25 28 31 34 38 41 44 47 49 51 53 54 55 55 56 55 55 55 55 54 54 54 52 52 52 51 50 49 48 47 46 45 44 43 43 42 40 39 38 38 37 36 36 35 36 37 38 38 38 36 35 35 34 34 33 32 31 30
14 14 16 18 19 22 25 29 33 36 39 41 45 47 49 51 53 54 54 54 54 54 54 54 54 54 54 53 52 52 52 51 49 48 48 47 45 45 44 43 42 41 40 39 39 39 38 37 37 37 37 38 39 39 38 37 36 36 35 35 34 33 32
14 14 16 16 17 19 23 27 31 34 36 39 42 45 47 49 51 52 53 53 53 53 53 54 54 53 52 52 52 53 52 50 49 49 48 47 46 45 45 44 43 42 41 40 40 40 39 38 38 38 38 38 39 40 39 39 38 38 37 37 36 35 33
13 14 16 18 19 20 21 25 28 31 34 37 39 42 44 48 49 50 51 53 53 53 53 53 53 51 51 52 53 52 51 49 49 50 49 49 47 46 46 45 44 43 42 41 41 40 40 39 39 39 39 39 39 40 41 41 40 40 40 38 37 36 35
13 14 16 18 19 19 20 22 24 27 30 34 38 40 43 45 48 49 51 52 52 53 53 52 52 50 51 53 52 51 50 50 50 50 50 49 48 47 46 46 45 44 43 42 41 41 41 40 40 41 41 40 40 41 42 43 43 42 41 40 38 36 35
16 19 21 19 17 18 18 19 21 22 26 30 34 38 41 44 46 48 50 51 51 51 51 51 50 50 51 52 51 50 51 50 50 50 50 49 48 47 47 46 46 45 44 43 43 42 42 42 42 41 41 41 41 42 44 45 44 43 42 40 38 37 35
21 26 27 22 19 19 20 21 20 19 21 25 30 35 39 42 44 46 48 49 49 49 50 50 50 50 51 51 50 51 51 50 50 50 49 49 48 48 47 46 46 46 45 45 44 43 44 43 42 42 42 42 43 43 45 46 44 43 42 40 39 37 36
25 28 28 25 22 22 23 23 21 19 19 22 25 31 35 39 43 44 45 45 46 47 49 49 49 49 50 50 50 50 50 50 50 50 49 49 49 48 47 47 47 47 47 46 44 44 45 44 43 43 43 44 44 44 45 46 45 44 43 41 39 38 36
27 27 27 26 24 24 25 26 24 21 19 19 22 27 31 36 39 40 41 43 44 46 47 47 48 48 49 50 50 50 50 50 50 49 49 49 49 49 48 48 48 48 48 47 46 46 46 45 44 45 45 45 45 45 45 46 46 45 44 42 41 38 36
25 24 25 25 25 25 26 26 24 21 18 17 20 25 30 34 35 37 40 43 43 44 45 46 47 48 48 49 50 50 50 50 50 50 50 50 50 49 49 49 49 48 49 49 48 48 47 46 45 45 45 45 46 46 46 46 47 47 45 43 41 39 37
22 22 23 24 25 25 25 24 23 20 17 14 16 21 26 31 33 36 39 41 42 42 43 44 45 46 47 48 49 49 49 49 49 49 49 49 49 49 49 49 49 49 49 49 48 49 48 47 46 46 46 46 47 47 47 47 47 48 46 44 42 40 38
20 20 20 22 23 23 22 21 19 15 12 11 13 15 20 26 30 34 36 39 40 41 42 43 44 45 45 46 47 48 47 46 47 47 48 48 49 50 49 49 49 49 49 48 48 49 49 48 48 47 46 47 47 47 48 47 47 48 47 44 41 40 40
16 15 16 17 18 18 17 16 12 8 6 8 9 10 14 20 25 29 33 36 38 39 41 42 42 42 44 45 46 44 42 42 44 45 46 48 48 49 49 49 49 49 49 48 48 49 49 48 49 48 47 47 47 47 48 47 46 47 47 44 42 41 41
11 11 10 10 10 10 10 9 7 6 6 7 9 9 10 14 20 25 29 32 35 37 39 39 39 40 42 43 41 39 39 40 43 44 45 45 46 48 48 48 48 48 49 49 49 49 49 49 49 48 46 46 47 47 47 47 47 48 47 45 43 42 41
12 11 8 7 5 5 5 6 7 6 6 7 9 10 10 12 16 20 24 27 30 33 34 35 35 36 37 37 37 37 39 41 43 43 42 43 44 45 46 46 47 47 48 49 49 50 51 51 52 51 49 48 47 48 49 48 47 48 48 46 43 41 40
15 14 12 11 9 9 9 8 8 8 7 7 8 10 11 12 12 15 18 21 24 26 27 28 28 29 30 32 34 36 39 41 41 40 40 41 42 44 45 46 46 47 48 48 48 50 51 52 53 53 53 53 52 50 51 51 50 48 48 47 45 42 41
17 17 16 16 15 14 15 13 12 11 10 10 10 10 11 13 12 12 13 15 17 20 21 22 24 26 28 30 32 34 36 38 39 38 38 39 41 42 43 44 46 48 48 48 49 51 52 53 53 54 54 54 53 50 47 48 50 50 48 47 46 43 42
17 17 17 18 17 16 17 17 16 16 15 14 13 12 12 13 13 12 12 13 14 16 17 19 20 23 25 27 30 32 33 35 36 36 37 38 40 41 41 43 46 47 48 50 51 51 52 53 54 54 50 46 46 48 46 45 49 52 50 48 47 45 43
14 15 16 17 17 17 16 16 16 16 16 15 14 13 12 11 11 12 11 11 12 12 13 14 15 17 19 22 25 28 30 31 32 34 36 37 39 40 42 43 45 47 49 50 51 51 53 51 50 51 49 43 43 49 51 50 52 54 54 51 49 46 45
12 14 15 15 16 16 16 16 16 15 16 16 14 13 13 12 10 10 10 9 9 10 10 11 11 12 14 16 19 22 24 26 28 31 33 35 37 40 42 44 46 47 49 50 49 49 47 43 41 44 46 47 50 54 55 55 56 54 54 54 51 47 46
10 12 13 14 14 14 13 14 13 13 13 14 13 13 12 11 10 9 8 7 7 7 7 8 9 10 11 12 14 16 19 22 25 28 30 33 35 38 40 43 45 47 49 49 48 45 41 39 39 40 39 43 53 58 54 54 57 56 54 53 50 48 46
8 10 12 13 14 13 13 12 11 11 10 10 9 9 9 8 8 7 6 5 4 4 4 5 6 7 9 10 11 13 15 18 22 25 28 30 33 37 39 41 43 45 47 48 45 40 38 40 43 44 40 38 43 47 45 44 51 56 56 54 52 50 47
7 8 10 12 12 12 12 12 11 10 9 8 8 7 6 5 5 3 3 1 0 1 2 2 3 4 5 7 9 11 13 16 18 21 24 25 27 31 34 36 38 39 40 45 46 43 41 41 40 43 46 45 39 37 39 44 51 57 58 56 55 54 51
9 9 10 11 12 12 12 12 11 11 10 10 10 8 7 7 6 5 4 4 4 3 3 4 4 5 6 7 8 10 12 13 15 17 20 21 22 25 27 30 33 34 35 40 45 47 48 47 43 41 45 49 46 40 43 51 57 60 60 59 56 53 50
10 11 11 12 13 14 16 16 16 15 14 14 13 11 10 10 9 8 7 6 6 6 5 4 3 3 4 6 8 9 11 12 13 14 16 18 21 23 26 29 32 34 35 37 41 44 47 50 51 48 46 49 51 50 52 57 61 59 60 61 59 54 50
13 12 13 14 16 19 20 20 20 19 19 18 16 15 14 13 12 12 11 9 9 8 7 7 6 5 4 3 3 4 5 7 8 9 11 13 16 19 23 26 29 31 35 37 40 43 44 46 50 53 53 54 56 57 59 61 61 60 62 64 62 58 53
19 18 19 22 24 24 23 23 22 21 22 21 20 19 19 18 17 16 15 14 13 13 12 11 10 10 10 9 7 6 5 4 3 3 4 5 7 9 11 14 18 20 23 27 33 38 43 45 49 53 56 58 59 61 64 65 63 62 63 64 63 61 56

ECMWFFLT1_850_spd_048.txt.gz
Wind_Speed
23 24 27 28 30 31 33 35 37 38 39 42 45 44 43 44 45 46 48 49 49 48 47 47 45 44 44 44 43 42 41 41 40 40 39 39 37 36 35 34 33 32 31 30 29 27 26 26 25 25 24 22 21 21 22 20 19 18 16 14 14 14 14
23 24 27 28 30 32 34 35 36 38 40 42 45 45 44 44 45 47 48 49 50 49 49 48 47 46 46 45 44 43 43 43 41 41 40 40 39 37 37 36 34 33 32 31 29 28 27 27 27 27 26 23 22 22 22 21 20 19 17 16 16 16 16
23 24 26 29 31 33 34 34 35 38 40 41 44 46 46 46 45 46 47 48 49 49 50 50 49 48 47 46 46 44 44 44 42 42 42 40 38 37 36 36 35 33 33 32 31 30 29 29 29 28 28 26 24 24 23 22 21 20 19 18 18 17 17
23 25 26 29 31 31 32 34 36 38 40 42 45 48 47 46 45 45 46 47 48 49 50 50 50 49 48 48 47 46 45 45 43 43 42 39 38 37 36 35 34 33 33 32 32 32 31 30 30 30 30 29 28 27 26 24 23 22 21 20 20 19 18
24 25 25 26 28 29 30 34 37 39 40 43 46 50 49 47 46 45 45 45 47 49 49 49 49 49 49 49 49 48 47 46 45 45 43 40 39 38 37 36 35 33 33 32 32 32 32 32 32 32 32 31 31 30 29 27 25 24 23 22 22 21 20
24 24 24 25 27 29 32 34 36 38 39 40 42 45 46 46 47 47 45 45 46 47 48 48 48 48 49 49 49 48 48 48 48 46 44 42 40 40 39 38 37 35 34 32 32 32 32 33 33 33 33 33 33 32 32 30 27 26 25 24 24 23 21
23 24 25 27 27 29 32 33 34 35 35 35 35 37 38 41 44 45 45 46 46 45 46 47 47 48 49 49 49 49 49 49 48 46 45 43 42 42 40 39 38 37 35 34 33 32 31 32 33 34 34 34 34 34 33 32 29 28 27 26 25 25 23
20 22 24 26 26 26 27 28 29 30 30 31 32 34 36 39 41 42 44 46 46 46 46 46 47 48 48 49 49 49 49 48 48 46 45 44 44 43 41 40 39 38 37 36 35 33 32 32 33 34 34 34 35 35 34 33 31 29 29 28 27 26 25
14 15 16 17 18 19 20 21 24 26 28 31 33 35 36 37 40 43 46 46 45 47 47 46 47 48 48 49 49 48 48 48 48 47 46 46 45 44 42 41 40 39 38 37 36 35 34 33 33 34 35 35 35 36 35 34 33 31 30 30 29 28 27
9 10 11 13 14 16 17 18 21 25 29 33 35 36 35 36 39 43 46 46 47 49 49 48 47 47 48 48 48 48 48 48 48 48 47 47 47 46 44 42 42 40 39 38 38 38 37 35 34 34 35 36 37 37 37 36 34 33 32 32 31 29 29
6 8 10 13 15 16 18 19 22 26 30 33 35 36 36 37 38 39 43 47 49 50 49 48 48 48 48 47 46 47 48 47 47 47 47 47 47 46 45 44 44 43 41 40 40 40 39 37 36 36 36 37 37 38 38 38 36 35 34 34 33 31 30
4 6 9 11 13 15 17 20 22 25 28 32 34 35 37 39 38 37 39 43 46 45 46 48 48 49 49 48 47 48 48 47 46 46 45 45 45 45 44 44 44 44 43 41 40 41 41 40 38 38 38 37 37 38 38 39 38 37 36 35 34 33 32
4 6 8 9 10 12 14 17 20 23 25 29 32 33 35 38 39 37 37 40 41 40 41 46 49 49 50 50 49 50 49 48 47 45 45 44 44 43 43 42 43 44 43 41 40 41 41 41 40 40 39 38 38 38 38 38 39 38 37 36 36 35 34
5 6 6 6 7 9 11 14 18 21 24 27 29 31 33 35 37 39 40 41 40 38 38 42 47 49 50 50 50 51 50 49 47 46 46 46 45 44 44 43 43 43 43 42 41 40 41 41 41 40 39 39 39 39 38 38 39 39 39 39 39 38 37
7 5 6 6 6 5 7 10 14 17 21 25 27 30 32 34 35 39 42 43 43 40 38 41 46 49 50 51 51 51 50 49 47 47 47 47 47 46 45 45 45 44 44 44 43 41 41 41 41 40 40 40 40 40 40 40 41 41 41 40 41 41 39
10 7 5 5 5 6 9 10 11 12 15 20 25 29 32 34 36 38 41 43 44 43 41 41 45 49 50 51 51 51 51 49 47 46 47 48 48 48 46 46 46 46 46 45 44 43 42 41 41 41 41 41 41 41 41 42 42 43 42 42 42 41 41
15 13 13 10 6 8 15 16 14 13 12 15 20 25 30 34 36 38 38 40 43 46 44 42 44 48 50 50 51 51 51 49 47 47 47 47 48 47 47 46 46 46 46 46 45 44 43 42 42 42 42 43 43 43 43 43 44 44 43 43 42 41 41
21 19 19 18 15 17 22 22 18 18 18 17 17 20 26 31 35 37 38 40 42 42 41 42 44 48 49 49 49 50 49 48 47 47 46 47 47 47 46 46 46 47 47 47 46 45 44 44 43 42 43 44 45 45 45 45 44 44 44 43 42 41 40
24 23 24 23 21 24 27 26 22 21 22 21 18 18 21 25 31 35 37 38 39 38 38 42 46 48 48 47 48 47 47 46 46 46 46 47 46 46 46 46 46 47 47 47 46 45 45 46 45 44 44 45 46 47 46 46 45 44 43 43 42 41 39
23 24 25 23 22 26 29 29 27 24 23 23 20 17 19 22 26 31 34 36 38 39 40 42 45 47 47 47 46 45 44 44 45 45 46 46 46 46 47 46 46 47 47 47 47 47 47 47 47 46 45 46 47 47 47 47 47 45 44 43 42 41 39
22 23 23 22 24 29 32 31 28 25 24 24 20 17 19 21 23 27 32 34 36 39 41 42 43 45 45 45 45 43 43 43 43 44 45 46 47 47 47 47 46 47 47 48 48 48 47 48 48 47 46 46 47 48 48 48 48 47 45 43 43 42 39
21 21 20 20 23 28 31 30 27 25 24 23 20 17 19 21 22 25 29 32 34 37 39 40 42 42 43 43 43 43 43 43 43 43 44 46 46 47 47 46 46 46 46 46 47 47 47 48 48 48 48 47 44 45 49 49 48 49 48 45 44 43 40
19 20 21 23 25 27 28 28 26 24 23 22 20 18 18 20 21 23 28 31 33 35 38 40 40 41 42 42 42 42 43 44 44 44 44 45 45 46 45 44 44 44 44 45 46 47 48 48 48 48 48 47 44 45 49 49 48 49 49 47 46 45 43
19 22 24 26 26 24 25 25 23 22 21 19 18 17 18 19 19 22 27 30 32 33 36 39 40 40 42 42 42 42 42 42 42 41 41 42 42 42 42 42 43 44 44 45 45 47 47 47 47 47 47 48 47 47 48 47 46 47 49 49 48 46 45
16 19 22 23 22 20 21 22 19 18 17 16 16 16 16 16 17 20 25 28 29 29 31 35 37 38 40 40 40 40 39 38 38 38 40 40 40 41 42 41 42 42 43 44 44 45 46 46 47 47 47 47 47 46 46 45 44 46 48 49 48 46 46
16 18 17 17 18 17 18 17 14 14 15 15 15 14 14 14 15 19 21 22 25 27 28 31 33 34 34 35 36 36 35 35 36 38 39 39 39 40 40 40 42 42 42 43 43 43 44 45 45 45 45 45 43 43 45 46 45 45 47 49 48 46 46
16 16 15 15 15 13 12 11 12 13 13 13 13 13 14 14 15 16 17 17 20 23 25 27 29 30 30 31 33 33 33 35 37 37 38 38 39 39 39 40 42 43 43 42 41 41 43 43 41 41 41 40 39 39 41 42 42 43 45 47 48 47 47
10 10 10 11 10 9 8 9 11 11 11 12 12 12 12 13 14 15 15 14 15 17 20 22 25 27 28 29 31 32 33 35 36 36 37 37 38 38 39 40 41 41 41 41 40 40 39 36 35 35 36 35 34 34 35 35 35 37 40 43 46 48 48
7 7 6 3 2 3 4 6 9 11 12 13 13 12 12 12 13 14 14 13 14 16 18 20 22 23 24 25 27 29 31 31 33 34 34 34 34 35 36 37 38 39 40 39 37 35 30 26 26 28 30 31 31 32 33 33 33 35 40 43 45 47 49
5 4 3 1 1 1 1 1 4 8 12 14 14 14 14 14 15 16 16 15 16 17 18 19 20 20 19 20 22 23 25 27 28 29 29 29 31 32 33 35 35 36 35 33 32 30 26 24 25 26 27 30 32 31 31 31 30 33 38 43 44 47 50
3 2 2 2 2 3 3 3 4 5 8 12 15 16 16 16 16 16 16 16 15 15 16 16 16 16 16 16 17 18 19 21 23 24 24 25 26 28 30 31 29 28 26 23 24 26 25 26 28 27 27 29 30 29 29 28 28 30 35 40 42 44 48
4 4 3 3 3 4 4 4 5 6 7 10 13 15 16 16 15 15 14 14 14 14 14 13 13 14 14 14 14 15 16 16 17 18 19 20 21 22 22 22 22 22 21 20 21 24 25 25 27 28 28 30 30 29 29 29 30 31 34 38 41 41 42
5 4 4 4 4 4 5 4 5 6 8 10 11 13 14 14 14 13 12 12 11 12 12 10 9 10 10 10 10 11 12 13 13 14 14 15 16 16 16 16 17 19 21 21 22 24 26 26 26 26 27 29 30 30 30 31 32 33 36 39 42 44 44
5 4 4 3 4 5 5 5 5 6 7 8 9 11 13 13 13 12 11 11 10 9 9 8 7 7 8 8 9 9 10 10 11 12 12 12 12 13 13 15 17 18 20 20 21 24 26 26 26 27 27 28 29 30 31 31 32 34 38 41 44 46 47
5 4 4 4 5 5 6 6 5 6 7 7 8 9 10 12 12 11 10 10 9 8 8 8 7 7 7 9 11 12 12 11 9 8 8 9 9 11 16 19 19 20 21 21 22 24 25 27 28 29 30 30 31 33 34 34 35 36 36 39 44 48 49
6 5 5 6 7 7 7 7 7 7 7 7 7 8 9 10 11 10 10 10 9 8 8 8 7 6 6 6 7 8 9 9 8 6 7 9 11 13 18 20 20 22 23 24 25 26 27 29 31 33 34 35 36 36 37 39 41 41 38 38 43 48 51
8 8 9 9 10 10 10 9 9 10 9 9 8 8 9 10 10 10 11 10 10 9 9 9 9 8 7 6 6 6 5 4 4 4 5 7 8 9 11 12 13 17 20 22 23 24 26 28 31 33 35 38 40 43 45 47 49 50 48 47 47 50 52
11 12 12 12 12 12 13 12 12 12 11 11 11 11 11 11 11 11 11 10 10 11 12 12 13 13 11 10 10 9 9 9 8 7 6 5 5 4 5 4 3 2 4 5 7 8 9 11 13 17 20 24 29 34 39 44 49 53 55 56 56 58 58